| time (UTC) | temp F | wind direction | speed MPH | gust MPH | rain 1hr in | rain 24hr in | rain mn in | humidity % | barometer mb |
| 20260509162526 | 57 | 220 | 1.0 | 4.0 | 0.24 | 0.34 | 0.34 | 91 | 1046.9 |
| 20260509162407 | 57 | 220 | 1.0 | 4.0 | 0.24 | 0.34 | 0.34 | 91 | 1046.9 |
| 20260509162326 | 57 | 220 | 1.0 | 4.0 | 0.24 | 0.34 | 0.33 | 91 | 1047.0 |
| 20260509162224 | 57 | 217 | 1.0 | 4.0 | 0.24 | 0.33 | 0.33 | 91 | 1047.0 |
| 20260509162210 | 57 | 217 | 1.0 | 4.0 | 0.24 | 0.33 | 0.33 | 91 | 1047.0 |
| 20260509162202 | 57 | 217 | 1.0 | 4.0 | 0.25 | 0.33 | 0.32 | 91 | 1047.0 |
| 20260509162150 | 57 | 216 | 1.0 | 4.0 | 0.25 | 0.32 | 0.32 | 91 | 1047.1 |
| 20260509161922 | 57 | 216 | 1.0 | 4.0 | 0.25 | 0.32 | 0.32 | 91 | 1047.1 |
| 20260509161910 | 57 | 217 | 1.0 | 4.0 | 0.26 | 0.32 | 0.32 | 91 | 1047.1 |
| 20260509161849 | 57 | 217 | 1.0 | 4.0 | 0.26 | 0.32 | 0.31 | 91 | 1047.2 |
| 20260509161617 | 57 | 217 | 1.0 | 4.0 | 0.26 | 0.31 | 0.31 | 91 | 1047.2 |
| 20260509161601 | 57 | 216 | 1.0 | 4.0 | 0.26 | 0.31 | 0.31 | 91 | 1047.2 |
| 20260509161550 | 57 | 216 | 1.0 | 4.0 | 0.25 | 0.31 | 0.31 | 91 | 1047.2 |
| 20260509161051 | 57 | 214 | 1.0 | 4.0 | 0.24 | 0.30 | 0.29 | 91 | 1047.4 |
| 20260509161040 | 57 | 213 | 1.0 | 4.0 | 0.24 | 0.29 | 0.29 | 91 | 1047.3 |
| 20260509161029 | 57 | 213 | 1.0 | 4.0 | 0.24 | 0.29 | 0.29 | 91 | 1047.4 |
| 20260509160705 | 57 | 212 | 1.0 | 2.0 | 0.24 | 0.29 | 0.28 | 91 | 1047.4 |
| 20260509160618 | 57 | 212 | 1.0 | 2.0 | 0.24 | 0.28 | 0.28 | 91 | 1047.4 |
| 20260509160610 | 57 | 212 | 1.0 | 2.0 | 0.24 | 0.28 | 0.28 | 91 | 1047.5 |
| 20260509160557 | 57 | 212 | 1.0 | 2.0 | 0.23 | 0.28 | 0.28 | 91 | 1047.5 |
| 20260509160305 | 57 | 212 | 1.0 | 2.0 | 0.23 | 0.28 | 0.28 | 91 | 1047.6 |
| 20260509160205 | 57 | 212 | 1.0 | 2.0 | 0.23 | 0.28 | 0.27 | 91 | 1047.6 |
| 20260509160104 | 57 | 212 | 1.0 | 2.0 | 0.22 | 0.27 | 0.27 | 91 | 1047.6 |
| 20260509160049 | 57 | 212 | 1.0 | 2.0 | 0.22 | 0.27 | 0.26 | 91 | 1047.7 |
| 20260509160039 | 57 | 212 | 1.0 | 2.0 | 0.21 | 0.26 | 0.26 | 91 | 1047.7 |
| 20260509160030 | 57 | 212 | 1.0 | 3.0 | 0.21 | 0.26 | 0.25 | 91 | 1047.7 |
| 20260509155704 | 57 | 212 | 1.0 | 3.0 | 0.20 | 0.25 | 0.24 | 91 | 1047.7 |
| 20260509155604 | 57 | 212 | 1.0 | 3.0 | 0.20 | 0.24 | 0.24 | 91 | 1047.7 |
| 20260509155504 | 57 | 212 | 2.0 | 3.0 | 0.20 | 0.24 | 0.24 | 90 | 1047.8 |
| 20260509155356 | 57 | 213 | 2.0 | 3.0 | 0.19 | 0.24 | 0.23 | 91 | 1047.8 |
| 20260509155337 | 57 | 212 | 2.0 | 3.0 | 0.19 | 0.24 | 0.23 | 91 | 1047.8 |
| 20260509155257 | 57 | 212 | 2.0 | 3.0 | 0.18 | 0.23 | 0.23 | 91 | 1047.8 |
| 20260509155157 | 57 | 213 | 1.0 | 3.0 | 0.19 | 0.23 | 0.22 | 91 | 1047.8 |
| 20260509155057 | 57 | 212 | 1.0 | 3.0 | 0.18 | 0.22 | 0.22 | 91 | 1047.8 |
| 20260509154957 | 57 | 212 | 1.0 | 3.0 | 0.18 | 0.22 | 0.21 | 90 | 1047.9 |
| 20260509154856 | 57 | 212 | 1.0 | 3.0 | 0.17 | 0.21 | 0.21 | 90 | 1047.9 |
| 20260509154836 | 57 | 212 | 2.0 | 3.0 | 0.17 | 0.21 | 0.21 | 90 | 1047.9 |
| 20260509154755 | 57 | 213 | 2.0 | 4.0 | 0.17 | 0.21 | 0.21 | 90 | 1047.9 |
| 20260509154734 | 57 | 212 | 2.0 | 4.0 | 0.17 | 0.21 | 0.20 | 90 | 1047.9 |
| 20260509154727 | 57 | 212 | 2.0 | 4.0 | 0.17 | 0.20 | 0.20 | 90 | 1047.9 |
| 20260509154421 | 57 | 212 | 1.0 | 4.0 | 0.16 | 0.20 | 0.19 | 90 | 1048.0 |
| 20260509154408 | 57 | 212 | 1.0 | 4.0 | 0.15 | 0.19 | 0.19 | 90 | 1048.0 |
| 20260509154043 | 57 | 212 | 1.0 | 4.0 | 0.14 | 0.18 | 0.18 | 90 | 1048.1 |
| 20260509153941 | 57 | 212 | 1.0 | 4.0 | 0.14 | 0.18 | 0.17 | 90 | 1048.1 |
| 20260509153838 | 57 | 212 | 1.0 | 4.0 | 0.13 | 0.17 | 0.17 | 90 | 1048.1 |
| 20260509153741 | 57 | 210 | 1.0 | 3.0 | 0.13 | 0.17 | 0.17 | 90 | 1048.1 |
| 20260509153640 | 57 | 210 | 1.0 | 5.0 | 0.13 | 0.17 | 0.16 | 90 | 1048.2 |
| 20260509153539 | 57 | 210 | 1.0 | 5.0 | 0.12 | 0.16 | 0.15 | 90 | 1048.2 |
| 20260509153439 | 57 | 210 | 1.0 | 5.0 | 0.11 | 0.15 | 0.14 | 90 | 1048.2 |
| 20260509153359 | 57 | 210 | 2.0 | 5.0 | 0.10 | 0.14 | 0.14 | 90 | 1048.3 |
| 20260509153347 | 57 | 210 | 2.0 | 5.0 | 0.10 | 0.14 | 0.13 | 89 | 1048.3 |
| 20260509153336 | 57 | 209 | 2.0 | 5.0 | 0.09 | 0.13 | 0.13 | 89 | 1048.3 |
| 20260509153327 | 58 | 209 | 2.0 | 5.0 | 0.09 | 0.13 | 0.12 | 89 | 1048.3 |
| 20260509153320 | 58 | 210 | 3.0 | 5.0 | 0.08 | 0.12 | 0.12 | 90 | 1048.3 |
| 20260509152731 | 58 | 209 | 2.0 | 5.0 | 0.07 | 0.11 | 0.10 | 89 | 1048.4 |
| 20260509152649 | 58 | 210 | 2.0 | 5.0 | 0.06 | 0.10 | 0.10 | 89 | 1048.4 |
| 20260509152641 | 58 | 210 | 2.0 | 5.0 | 0.06 | 0.10 | 0.09 | 89 | 1048.4 |
| 20260509152628 | 58 | 210 | 3.0 | 6.0 | 0.06 | 0.09 | 0.09 | 89 | 1048.4 |
| 20260509152400 | 58 | 206 | 3.0 | 7.0 | 0.06 | 0.09 | 0.09 | 89 | 1048.4 |
| 20260509152350 | 58 | 205 | 3.0 | 7.0 | 0.05 | 0.09 | 0.09 | 89 | 1048.4 |
| 20260509152119 | 58 | 206 | 3.0 | 7.0 | 0.04 | 0.08 | 0.08 | 89 | 1048.4 |
| 20260509152108 | 58 | 206 | 4.0 | 9.0 | 0.04 | 0.08 | 0.07 | 89 | 1048.3 |
| 20260509151831 | 58 | 206 | 4.0 | 9.0 | 0.03 | 0.07 | 0.07 | 89 | 1048.3 |
| 20260509151729 | 58 | 206 | 4.0 | 9.0 | 0.02 | 0.06 | 0.06 | 89 | 1048.3 |
| 20260509151706 | 58 | 205 | 5.0 | 9.0 | 0.02 | 0.06 | 0.06 | 89 | 1048.2 |
| 20260509151700 | 58 | 206 | 4.0 | 9.0 | 0.02 | 0.06 | 0.06 | 89 | 1048.2 |
| 20260509151325 | 58 | 214 | 5.0 | 9.0 | 0.02 | 0.06 | 0.06 | 89 | 1048.2 |
| 20260509151223 | 58 | 214 | 5.0 | 9.0 | 0.02 | 0.06 | 0.06 | 89 | 1048.1 |
| 20260509151131 | 58 | 214 | 5.0 | 9.0 | 0.02 | 0.06 | 0.06 | 89 | 1048.1 |
| 20260509151120 | 58 | 211 | 4.0 | 9.0 | 0.02 | 0.06 | 0.06 | 89 | 1048.1 |
| 20260509151112 | 58 | 214 | 4.0 | 8.0 | 0.02 | 0.06 | 0.06 | 89 | 1048.0 |
| 20260509151100 | 58 | 220 | 4.0 | 7.0 | 0.02 | 0.06 | 0.05 | 89 | 1047.9 |
| 20260509151053 | 58 | 222 | 4.0 | 7.0 | 0.02 | 0.06 | 0.05 | 89 | 1047.9 |
| 20260509151045 | 58 | 220 | 3.0 | 7.0 | 0.02 | 0.05 | 0.05 | 89 | 1047.9 |
| 20260509151032 | 58 | 230 | 3.0 | 5.0 | 0.02 | 0.05 | 0.05 | 89 | 1047.7 |
| 20260509150539 | 58 | 68 | 2.0 | 5.0 | 0.02 | 0.05 | 0.05 | 89 | 1047.4 |
| 20260509150219 | 58 | 68 | 2.0 | 5.0 | 0.02 | 0.05 | 0.05 | 89 | 1047.2 |
| 20260509150118 | 58 | 67 | 2.0 | 5.0 | 0.02 | 0.05 | 0.05 | 88 | 1047.1 |
| 20260509150019 | 58 | 66 | 2.0 | 4.0 | 0.02 | 0.05 | 0.05 | 88 | 1047.0 |
| 20260509145915 | 58 | 66 | 2.0 | 6.0 | 0.02 | 0.05 | 0.05 | 88 | 1046.8 |
| 20260509145816 | 58 | 66 | 2.0 | 6.0 | 0.02 | 0.05 | 0.05 | 88 | 1046.7 |
| 20260509145715 | 58 | 66 | 3.0 | 6.0 | 0.02 | 0.05 | 0.05 | 88 | 1046.6 |
| 20260509145615 | 58 | 66 | 3.0 | 7.0 | 0.02 | 0.05 | 0.05 | 87 | 1046.5 |
| 20260509145554 | 58 | 66 | 3.0 | 8.0 | 0.02 | 0.05 | 0.05 | 87 | 1046.4 |
| 20260509145546 | 58 | 66 | 4.0 | 8.0 | 0.02 | 0.05 | 0.05 | 87 | 1046.4 |
| 20260509145537 | 58 | 65 | 4.0 | 8.0 | 0.02 | 0.05 | 0.05 | 87 | 1046.3 |
| 20260509145530 | 58 | 66 | 4.0 | 8.0 | 0.02 | 0.05 | 0.05 | 87 | 1046.3 |
| 20260509145517 | 58 | 66 | 4.0 | 8.0 | 0.02 | 0.05 | 0.04 | 87 | 1046.2 |
| 20260509145510 | 58 | 65 | 4.0 | 8.0 | 0.02 | 0.04 | 0.04 | 87 | 1046.2 |
| 20260509145501 | 58 | 65 | 4.0 | 8.0 | 0.02 | 0.04 | 0.04 | 87 | 1046.1 |
| 20260509145455 | 58 | 65 | 4.0 | 8.0 | 0.02 | 0.04 | 0.04 | 87 | 1046.0 |
| 20260509145444 | 59 | 60 | 5.0 | 8.0 | 0.02 | 0.04 | 0.04 | 87 | 1046.0 |
| 20260509144734 | 59 | 77 | 5.0 | 9.0 | 0.03 | 0.04 | 0.04 | 87 | 1045.9 |
| 20260509144724 | 59 | 68 | 5.0 | 9.0 | 0.03 | 0.04 | 0.04 | 87 | 1045.9 |
| 20260509144713 | 59 | 156 | 5.0 | 9.0 | 0.03 | 0.04 | 0.04 | 87 | 1046.0 |
| 20260509144113 | 59 | 68 | 5.0 | 9.0 | 0.03 | 0.04 | 0.04 | 87 | 1046.1 |
| 20260509144024 | 59 | 72 | 4.0 | 9.0 | 0.03 | 0.04 | 0.04 | 87 | 1046.1 |
| 20260509143913 | 59 | 77 | 4.0 | 9.0 | 0.03 | 0.04 | 0.04 | 88 | 1046.0 |
| 20260509143832 | 59 | 75 | 4.0 | 9.0 | 0.03 | 0.04 | 0.04 | 88 | 1046.1 |
| 20260509143813 | 59 | 83 | 4.0 | 9.0 | 0.03 | 0.04 | 0.04 | 88 | 1046.1 |
| 20260509143709 | 59 | 74 | 4.0 | 8.0 | 0.03 | 0.04 | 0.04 | 88 | 1046.0 |
| 20260509143608 | 59 | 91 | 4.0 | 9.0 | 0.03 | 0.04 | 0.04 | 88 | 1045.9 |
| 20260509143511 | 59 | 81 | 4.0 | 9.0 | 0.03 | 0.04 | 0.04 | 88 | 1045.9 |
| 20260509143406 | 59 | 79 | 4.0 | 9.0 | 0.04 | 0.04 | 0.04 | 88 | 1045.9 |
| 20260509143333 | 59 | 78 | 4.0 | 9.0 | 0.04 | 0.04 | 0.04 | 87 | 1045.9 |
| 20260509143306 | 59 | 73 | 4.0 | 9.0 | 0.04 | 0.04 | 0.04 | 87 | 1045.9 |
| 20260509143207 | 59 | 83 | 4.0 | 9.0 | 0.04 | 0.04 | 0.04 | 87 | 1045.9 |
| 20260509143107 | 59 | 84 | 5.0 | 9.0 | 0.04 | 0.04 | 0.04 | 87 | 1045.9 |
| 20260509143004 | 59 | 85 | 5.0 | 9.0 | 0.04 | 0.04 | 0.04 | 87 | 1046.0 |
| 20260509142904 | 59 | 85 | 5.0 | 9.0 | 0.04 | 0.04 | 0.04 | 87 | 1046.0 |
| 20260509142832 | 60 | 82 | 5.0 | 9.0 | 0.04 | 0.04 | 0.04 | 87 | 1045.9 |
| 20260509142805 | 60 | 67 | 5.0 | 9.0 | 0.04 | 0.04 | 0.04 | 87 | 1045.9 |
| 20260509142704 | 60 | 64 | 4.0 | 9.0 | 0.04 | 0.04 | 0.04 | 87 | 1046.0 |
| 20260509142603 | 60 | 63 | 4.0 | 9.0 | 0.04 | 0.04 | 0.04 | 87 | 1045.9 |
| 20260509142503 | 60 | 64 | 4.0 | 9.0 | 0.04 | 0.04 | 0.04 | 87 | 1045.9 |
| 20260509142404 | 60 | 62 | 4.0 | 9.0 | 0.04 | 0.04 | 0.04 | 87 | 1045.9 |
| 20260509142333 | 60 | 64 | 4.0 | 9.0 | 0.04 | 0.04 | 0.04 | 87 | 1045.9 |
| 20260509142320 | 60 | 58 | 4.0 | 9.0 | 0.04 | 0.04 | 0.04 | 87 | 1045.9 |
| 20260509142313 | 60 | 59 | 4.0 | 9.0 | 0.04 | 0.04 | 0.04 | 87 | 1045.8 |
| 20260509142300 | 60 | 45 | 3.0 | 6.0 | 0.04 | 0.04 | 0.04 | 87 | 1045.8 |
| 20260509142036 | 60 | 41 | 3.0 | 6.0 | 0.04 | 0.04 | 0.04 | 87 | 1045.8 |
| 20260509142027 | 60 | 34 | 3.0 | 6.0 | 0.04 | 0.04 | 0.04 | 87 | 1045.8 |
| 20260509141703 | 60 | 35 | 3.0 | 6.0 | 0.04 | 0.04 | 0.04 | 87 | 1045.8 |
| 20260509141600 | 60 | 25 | 3.0 | 7.0 | 0.04 | 0.04 | 0.04 | 87 | 1045.8 |
| 20260509141454 | 60 | 24 | 3.0 | 7.0 | 0.04 | 0.04 | 0.04 | 87 | 1045.8 |
| 20260509141354 | 60 | 52 | 3.0 | 7.0 | 0.04 | 0.04 | 0.04 | 87 | 1045.8 |
| 20260509141333 | 60 | 52 | 4.0 | 7.0 | 0.04 | 0.04 | 0.04 | 87 | 1045.9 |
| 20260509141255 | 60 | 52 | 4.0 | 7.0 | 0.04 | 0.04 | 0.03 | 87 | 1045.9 |
| 20260509141219 | 60 | 54 | 3.0 | 7.0 | 0.03 | 0.03 | 0.03 | 87 | 1045.9 |
| 20260509141211 | 60 | 54 | 3.0 | 7.0 | 0.03 | 0.03 | 0.03 | 86 | 1045.9 |
| 20260509140833 | 60 | 68 | 3.0 | 7.0 | 0.03 | 0.03 | 0.03 | 86 | 1045.9 |
| 20260509140745 | 60 | 71 | 3.0 | 7.0 | 0.03 | 0.03 | 0.03 | 86 | 1046.0 |
| 20260509140647 | 60 | 71 | 3.0 | 7.0 | 0.03 | 0.03 | 0.03 | 86 | 1046.0 |
| 20260509140544 | 60 | 83 | 3.0 | 6.0 | 0.03 | 0.03 | 0.03 | 86 | 1046.1 |
| 20260509140442 | 60 | 84 | 3.0 | 6.0 | 0.03 | 0.03 | 0.03 | 86 | 1046.1 |
| 20260509140343 | 60 | 84 | 3.0 | 6.0 | 0.03 | 0.03 | 0.03 | 86 | 1046.1 |
| 20260509140331 | 60 | 84 | 2.0 | 6.0 | 0.03 | 0.03 | 0.03 | 86 | 1046.1 |
| 20260509140245 | 60 | 85 | 2.0 | 6.0 | 0.03 | 0.03 | 0.03 | 85 | 1046.1 |
| 20260509140141 | 60 | 85 | 2.0 | 6.0 | 0.03 | 0.03 | 0.03 | 85 | 1046.2 |
| 20260509140040 | 60 | 85 | 2.0 | 6.0 | 0.03 | 0.03 | 0.03 | 85 | 1046.2 |
| 20260509135941 | 60 | 85 | 2.0 | 6.0 | 0.03 | 0.03 | 0.03 | 85 | 1046.3 |
| 20260509135829 | 60 | 85 | 2.0 | 6.0 | 0.03 | 0.03 | 0.03 | 85 | 1046.3 |
| 20260509135741 | 60 | 87 | 2.0 | 5.0 | 0.03 | 0.03 | 0.03 | 84 | 1046.3 |
| 20260509135641 | 60 | 87 | 2.0 | 4.0 | 0.03 | 0.03 | 0.03 | 84 | 1046.4 |
| 20260509135538 | 60 | 87 | 2.0 | 4.0 | 0.03 | 0.03 | 0.02 | 84 | 1046.5 |
| 20260509135436 | 60 | 87 | 2.0 | 4.0 | 0.02 | 0.02 | 0.02 | 84 | 1046.5 |
| 20260509135331 | 60 | 87 | 2.0 | 4.0 | 0.02 | 0.02 | 0.02 | 84 | 1046.5 |
| 20260509135233 | 60 | 87 | 2.0 | 4.0 | 0.02 | 0.02 | 0.02 | 83 | 1046.5 |
| 20260509135204 | 61 | 87 | 2.0 | 4.0 | 0.02 | 0.02 | 0.02 | 83 | 1046.6 |
| 20260509135156 | 61 | 87 | 2.0 | 4.0 | 0.02 | 0.02 | 0.02 | 83 | 1046.6 |
| 20260509134850 | 61 | 87 | 2.0 | 4.0 | 0.02 | 0.02 | 0.02 | 83 | 1046.7 |
| 20260509134841 | 61 | 87 | 2.0 | 4.0 | 0.02 | 0.02 | 0.02 | 82 | 1046.7 |
| 20260509134831 | 61 | 87 | 2.0 | 4.0 | 0.02 | 0.02 | 0.01 | 82 | 1046.8 |
| 20260509134822 | 61 | 87 | 2.0 | 4.0 | 0.01 | 0.01 | 0.01 | 82 | 1046.8 |
| 20260509134816 | 61 | 87 | 2.0 | 4.0 | 0.01 | 0.01 | 0.01 | 82 | 1046.8 |
| 20260509134807 | 61 | 87 | 2.0 | 4.0 | 0.01 | 0.01 | 0.01 | 82 | 1046.8 |
| 20260509134230 | 61 | 88 | 1.0 | 4.0 | 0.01 | 0.01 | 0.01 | 82 | 1046.9 |
| 20260509134130 | 61 | 89 | 1.0 | 4.0 | 0.01 | 0.01 | 0.01 | 82 | 1046.9 |
| 20260509134108 | 61 | 89 | 1.0 | 4.0 | 0.01 | 0.01 | 0.01 | 82 | 1047.0 |
| 20260509134100 | 61 | 89 | 1.0 | 3.0 | 0.01 | 0.01 | 0.01 | 81 | 1047.0 |
| 20260509133827 | 61 | 89 | 1.0 | 3.0 | 0.01 | 0.01 | 0.01 | 81 | 1047.1 |
| 20260509133724 | 61 | 89 | 1.0 | 3.0 | 0.01 | 0.01 | 0.01 | 80 | 1047.1 |
| 20260509133622 | 61 | 89 | 1.0 | 3.0 | 0.01 | 0.01 | 0.01 | 80 | 1047.1 |
| 20260509133522 | 61 | 89 | 1.0 | 3.0 | 0.01 | 0.01 | 0.01 | 80 | 1047.1 |
| 20260509133427 | 62 | 89 | 1.0 | 3.0 | 0.01 | 0.01 | 0.00 | 80 | 1047.1 |
| 20260509133413 | 62 | 89 | 1.0 | 3.0 | 0.00 | 0.00 | 0.00 | 79 | 1047.2 |
| 20260509133356 | 62 | 89 | 1.0 | 3.0 | 0.00 | 0.00 | 0.00 | 79 | 1047.2 |
| 20260509133132 | 62 | 89 | 1.0 | 2.0 | 0.00 | 0.00 | 0.00 | 79 | 1047.2 |
| 20260509132815 | 62 | 89 | 1.0 | 2.0 | 0.00 | 0.00 | 0.00 | 78 | 1047.2 |
| 20260509132710 | 62 | 89 | 1.0 | 2.0 | 0.00 | 0.00 | 0.00 | 78 | 1047.2 |
| 20260509132658 | 62 | 89 | 1.0 | 2.0 | 0.00 | 0.00 | 0.00 | 78 | 1047.2 |
| 20260509132651 | 62 | 89 | 0.0 | 2.0 | 0.00 | 0.00 | 0.00 | 79 | 1047.2 |
| 20260509132641 | 62 | 89 | 1.0 | 2.0 | 0.00 | 0.00 | 0.00 | 79 | 1047.3 |
| 20260509132624 | 62 | 89 | 1.0 | 2.0 | 0.00 | 0.00 | 0.00 | 78 | 1047.2 |
| 20260509132616 | 62 | 90 | 1.0 | 3.0 | 0.00 | 0.00 | 0.00 | 78 | 1047.2 |
| 20260509132609 | 62 | 89 | 1.0 | 3.0 | 0.00 | 0.00 | 0.00 | 78 | 1047.3 |
| 20260509132554 | 62 | 89 | 1.0 | 3.0 | 0.00 | 0.00 | 0.00 | 78 | 1047.3 |
| 20260509132549 | 62 | 89 | 1.0 | 3.0 | 0.00 | 0.00 | 0.00 | 78 | 1047.3 |
| 20260509132314 | 62 | 89 | 1.0 | 3.0 | 0.00 | 0.00 | 0.00 | 78 | 1047.3 |
| 20260509132307 | 62 | 89 | 1.0 | 3.0 | 0.00 | 0.00 | 0.00 | 78 | 1047.3 |
| 20260509132044 | 62 | 89 | 1.0 | 3.0 | 0.00 | 0.00 | 0.00 | 77 | 1047.4 |
| 20260509132036 | 62 | 89 | 1.0 | 4.0 | 0.00 | 0.00 | 0.00 | 77 | 1047.4 |
| 20260509132016 | 62 | 89 | 1.0 | 4.0 | 0.00 | 0.00 | 0.00 | 77 | 1047.4 |
| 20260509132005 | 62 | 89 | 1.0 | 6.0 | 0.00 | 0.00 | 0.00 | 77 | 1047.5 |
| 20260509131735 | 62 | 89 | 1.0 | 6.0 | 0.00 | 0.00 | 0.00 | 77 | 1047.5 |
| 20260509131726 | 62 | 89 | 1.0 | 6.0 | 0.00 | 0.00 | 0.00 | 77 | 1047.5 |
| 20260509131008 | 62 | 89 | 2.0 | 6.0 | 0.00 | 0.00 | 0.00 | 77 | 1047.5 |
| 20260509131001 | 62 | 89 | 2.0 | 6.0 | 0.00 | 0.00 | 0.00 | 77 | 1047.5 |
| 20260509130156 | 62 | 87 | 3.0 | 8.0 | 0.00 | 0.00 | 0.00 | 77 | 1047.6 |
| 20260509130052 | 62 | 88 | 3.0 | 8.0 | 0.00 | 0.00 | 0.00 | 77 | 1047.6 |
| 20260509125949 | 62 | 87 | 3.0 | 8.0 | 0.00 | 0.00 | 0.00 | 77 | 1047.6 |
| 20260509125849 | 62 | 87 | 4.0 | 8.0 | 0.00 | 0.00 | 0.00 | 77 | 1047.5 |
| 20260509125807 | 62 | 87 | 4.0 | 8.0 | 0.00 | 0.00 | 0.00 | 77 | 1047.6 |
| 20260509125747 | 62 | 87 | 4.0 | 8.0 | 0.00 | 0.00 | 0.00 | 77 | 1047.6 |
| 20260509125647 | 62 | 87 | 4.0 | 8.0 | 0.00 | 0.00 | 0.00 | 77 | 1047.5 |
| 20260509125546 | 62 | 87 | 3.0 | 8.0 | 0.00 | 0.00 | 0.00 | 77 | 1047.5 |
| 20260509125536 | 62 | 87 | 3.0 | 8.0 | 0.00 | 0.00 | 0.00 | 76 | 1047.5 |
| 20260509125527 | 62 | 76 | 3.0 | 8.0 | 0.00 | 0.00 | 0.00 | 77 | 1047.4 |
| 20260509125518 | 62 | 77 | 3.0 | 8.0 | 0.00 | 0.00 | 0.00 | 77 | 1047.4 |
| 20260509125505 | 62 | 163 | 3.0 | 8.0 | 0.00 | 0.00 | 0.00 | 76 | 1047.4 |
| 20260509125455 | 62 | 128 | 3.0 | 7.0 | 0.00 | 0.00 | 0.00 | 76 | 1047.4 |
| 20260509125228 | 62 | 63 | 3.0 | 7.0 | 0.00 | 0.00 | 0.00 | 76 | 1047.3 |
| 20260509125209 | 62 | 74 | 3.0 | 7.0 | 0.00 | 0.00 | 0.00 | 76 | 1047.3 |
| 20260509124945 | 62 | 74 | 3.0 | 8.0 | 0.00 | 0.00 | 0.00 | 76 | 1047.3 |
| 20260509124937 | 62 | 74 | 3.0 | 8.0 | 0.00 | 0.00 | 0.00 | 76 | 1047.3 |
| 20260509124445 | 62 | 74 | 3.0 | 8.0 | 0.00 | 0.00 | 0.00 | 76 | 1047.3 |
| 20260509124428 | 62 | 74 | 3.0 | 8.0 | 0.00 | 0.00 | 0.00 | 76 | 1047.2 |
| 20260509124205 | 62 | 65 | 3.0 | 8.0 | 0.00 | 0.00 | 0.00 | 76 | 1047.2 |
| 20260509124149 | 62 | 64 | 3.0 | 8.0 | 0.00 | 0.00 | 0.00 | 75 | 1047.2 |
| 20260509124125 | 62 | 63 | 3.0 | 8.0 | 0.00 | 0.00 | 0.00 | 75 | 1047.1 |
| 20260509123858 | 62 | 143 | 3.0 | 7.0 | 0.00 | 0.00 | 0.00 | 75 | 1047.1 |
| 20260509123548 | 62 | 145 | 3.0 | 7.0 | 0.00 | 0.00 | 0.00 | 75 | 1047.1 |
| 20260509123540 | 62 | 145 | 3.0 | 7.0 | 0.00 | 0.00 | 0.00 | 75 | 1047.0 |
| 20260509123526 | 62 | 145 | 4.0 | 9.0 | 0.00 | 0.00 | 0.00 | 75 | 1047.0 |
| 20260509123239 | 62 | 145 | 4.0 | 10.0 | 0.00 | 0.00 | 0.00 | 75 | 1046.9 |
| 20260509123139 | 62 | 145 | 4.0 | 10.0 | 0.00 | 0.00 | 0.00 | 75 | 1046.9 |
| 20260509123049 | 62 | 145 | 5.0 | 11.0 | 0.00 | 0.00 | 0.00 | 75 | 1046.8 |
| 20260509123039 | 62 | 145 | 5.0 | 12.0 | 0.00 | 0.00 | 0.00 | 75 | 1046.8 |
| 20260509123027 | 62 | 144 | 5.0 | 12.0 | 0.00 | 0.00 | 0.00 | 75 | 1046.8 |
| 20260509122739 | 62 | 145 | 5.0 | 12.0 | 0.00 | 0.00 | 0.00 | 74 | 1046.7 |
| 20260509122637 | 62 | 54 | 5.0 | 12.0 | 0.00 | 0.00 | 0.00 | 74 | 1046.7 |
| 20260509122536 | 62 | 54 | 5.0 | 12.0 | 0.00 | 0.00 | 0.00 | 75 | 1046.7 |
| 20260509122437 | 62 | 79 | 5.0 | 12.0 | 0.00 | 0.00 | 0.00 | 74 | 1046.6 |
| 20260509122338 | 62 | 54 | 5.0 | 12.0 | 0.00 | 0.00 | 0.00 | 75 | 1046.6 |
| 20260509122306 | 62 | 58 | 5.0 | 12.0 | 0.00 | 0.00 | 0.00 | 75 | 1046.6 |
| 20260509122236 | 62 | 49 | 5.0 | 12.0 | 0.00 | 0.00 | 0.00 | 75 | 1046.5 |
| 20260509122136 | 62 | 61 | 5.0 | 12.0 | 0.00 | 0.00 | 0.00 | 75 | 1046.5 |
| 20260509122108 | 62 | 55 | 4.0 | 12.0 | 0.00 | 0.00 | 0.00 | 76 | 1046.4 |
| 20260509122059 | 62 | 75 | 5.0 | 9.0 | 0.00 | 0.00 | 0.00 | 76 | 1046.4 |
| 20260509121804 | 62 | 75 | 5.0 | 9.0 | 0.00 | 0.00 | 0.00 | 76 | 1046.5 |
| 20260509121740 | 62 | 75 | 5.0 | 9.0 | 0.00 | 0.00 | 0.00 | 76 | 1046.6 |
| 20260509121636 | 62 | 75 | 4.0 | 9.0 | 0.00 | 0.00 | 0.00 | 76 | 1046.6 |
| 20260509121544 | 62 | 73 | 5.0 | 9.0 | 0.00 | 0.00 | 0.00 | 76 | 1046.7 |
| 20260509121537 | 62 | 72 | 5.0 | 11.0 | 0.00 | 0.00 | 0.00 | 76 | 1046.8 |
| 20260509121523 | 62 | 79 | 5.0 | 11.0 | 0.00 | 0.00 | 0.00 | 77 | 1046.9 |
| 20260509121237 | 62 | 67 | 5.0 | 11.0 | 0.00 | 0.00 | 0.00 | 77 | 1047.0 |
| 20260509121136 | 62 | 67 | 4.0 | 11.0 | 0.00 | 0.00 | 0.00 | 77 | 1047.1 |
| 20260509121034 | 62 | 64 | 4.0 | 11.0 | 0.00 | 0.00 | 0.00 | 77 | 1047.1 |
| 20260509120932 | 62 | 66 | 4.0 | 11.0 | 0.00 | 0.00 | 0.00 | 77 | 1047.2 |
| 20260509120831 | 62 | 66 | 4.0 | 11.0 | 0.00 | 0.00 | 0.00 | 77 | 1047.2 |
| 20260509120805 | 62 | 68 | 4.0 | 11.0 | 0.00 | 0.00 | 0.00 | 77 | 1047.2 |
| 20260509120731 | 62 | 66 | 5.0 | 11.0 | 0.00 | 0.00 | 0.00 | 77 | 1047.1 |
| 20260509120630 | 62 | 67 | 5.0 | 11.0 | 0.00 | 0.00 | 0.00 | 77 | 1047.1 |
| 20260509120530 | 62 | 66 | 4.0 | 11.0 | 0.00 | 0.00 | 0.00 | 77 | 1047.2 |
| 20260509120430 | 62 | 64 | 4.0 | 8.0 | 0.00 | 0.00 | 0.00 | 77 | 1047.2 |
| 20260509120327 | 62 | 99 | 4.0 | 8.0 | 0.00 | 0.00 | 0.00 | 77 | 1047.2 |
| 20260509120305 | 62 | 104 | 4.0 | 9.0 | 0.00 | 0.00 | 0.00 | 77 | 1047.2 |
| 20260509120224 | 62 | 106 | 4.0 | 9.0 | 0.00 | 0.00 | 0.00 | 77 | 1047.3 |
| 20260509120124 | 62 | 107 | 4.0 | 9.0 | 0.00 | 0.00 | 0.00 | 76 | 1047.3 |
| 20260509120054 | 62 | 108 | 4.0 | 9.0 | 0.00 | 0.00 | 0.00 | 77 | 1047.4 |
| 20260509120046 | 62 | 131 | 4.0 | 9.0 | 0.00 | 0.00 | 0.00 | 77 | 1047.4 |
| 20260509115806 | 62 | 73 | 4.0 | 9.0 | 0.00 | 0.00 | 0.00 | 78 | 1047.5 |
| 20260509115722 | 62 | 128 | 4.0 | 9.0 | 0.00 | 0.00 | 0.00 | 77 | 1047.5 |
| 20260509115653 | 62 | 138 | 4.0 | 9.0 | 0.00 | 0.00 | 0.00 | 77 | 1047.6 |
| 20260509115644 | 62 | 145 | 4.0 | 9.0 | 0.00 | 0.00 | 0.00 | 77 | 1047.6 |
| 20260509115314 | 62 | 70 | 4.0 | 9.0 | 0.00 | 0.00 | 0.00 | 77 | 1047.6 |
| 20260509115307 | 62 | 65 | 4.0 | 9.0 | 0.00 | 0.00 | 0.00 | 77 | 1047.6 |
| 20260509115208 | 62 | 108 | 4.0 | 9.0 | 0.00 | 0.00 | 0.00 | 76 | 1047.7 |
| 20260509115108 | 62 | 126 | 4.0 | 9.0 | 0.00 | 0.00 | 0.00 | 76 | 1047.7 |
| 20260509115010 | 62 | 133 | 5.0 | 9.0 | 0.00 | 0.00 | 0.00 | 76 | 1047.8 |
| 20260509114908 | 63 | 133 | 5.0 | 12.0 | 0.00 | 0.00 | 0.00 | 76 | 1047.9 |
| 20260509114807 | 63 | 135 | 5.0 | 12.0 | 0.00 | 0.00 | 0.00 | 76 | 1048.0 |
| 20260509114704 | 63 | 82 | 5.0 | 12.0 | 0.00 | 0.00 | 0.00 | 76 | 1047.9 |
| 20260509114605 | 63 | 138 | 5.0 | 12.0 | 0.00 | 0.00 | 0.00 | 76 | 1047.9 |
| 20260509114504 | 63 | 108 | 5.0 | 12.0 | 0.00 | 0.00 | 0.00 | 76 | 1048.0 |
| 20260509114405 | 63 | 106 | 5.0 | 12.0 | 0.00 | 0.00 | 0.00 | 76 | 1048.0 |
| 20260509114332 | 63 | 108 | 5.0 | 12.0 | 0.00 | 0.00 | 0.00 | 76 | 1048.0 |
| 20260509114309 | 63 | 108 | 5.0 | 12.0 | 0.00 | 0.00 | 0.00 | 75 | 1048.0 |
| 20260509114301 | 63 | 43 | 5.0 | 12.0 | 0.00 | 0.00 | 0.00 | 75 | 1048.0 |
| 20260509114252 | 63 | 145 | 5.0 | 12.0 | 0.00 | 0.00 | 0.00 | 76 | 1048.1 |
| 20260509114244 | 63 | 113 | 5.0 | 10.0 | 0.00 | 0.00 | 0.00 | 76 | 1048.1 |
| 20260509114221 | 63 | 120 | 5.0 | 13.0 | 0.00 | 0.00 | 0.00 | 76 | 1048.2 |
| 20260509113957 | 63 | 85 | 5.0 | 13.0 | 0.00 | 0.00 | 0.00 | 75 | 1048.2 |
| 20260509113934 | 63 | 141 | 5.0 | 13.0 | 0.00 | 0.00 | 0.00 | 75 | 1048.2 |
| 20260509113450 | 63 | 85 | 5.0 | 13.0 | 0.00 | 0.00 | 0.00 | 75 | 1048.3 |
| 20260509113225 | 63 | 96 | 6.0 | 13.0 | 0.00 | 0.00 | 0.00 | 75 | 1048.4 |
| 20260509112903 | 63 | 105 | 5.0 | 14.0 | 0.00 | 0.00 | 0.00 | 76 | 1048.5 |
| 20260509112803 | 63 | 113 | 5.0 | 14.0 | 0.00 | 0.00 | 0.00 | 76 | 1048.5 |
| 20260509112703 | 63 | 112 | 6.0 | 14.0 | 0.00 | 0.00 | 0.00 | 76 | 1048.4 |
| 20260509112604 | 63 | 152 | 6.0 | 14.0 | 0.00 | 0.00 | 0.00 | 76 | 1048.5 |
| 20260509112545 | 63 | 163 | 6.0 | 14.0 | 0.00 | 0.00 | 0.00 | 76 | 1048.5 |
| 20260509112539 | 63 | 108 | 7.0 | 14.0 | 0.00 | 0.00 | 0.00 | 75 | 1048.5 |
| 20260509112525 | 63 | 108 | 7.0 | 14.0 | 0.00 | 0.00 | 0.00 | 75 | 1048.5 |
| 20260509112203 | 63 | 101 | 7.0 | 14.0 | 0.00 | 0.00 | 0.00 | 75 | 1048.5 |
| 20260509112103 | 63 | 142 | 7.0 | 14.0 | 0.00 | 0.00 | 0.00 | 75 | 1048.6 |
| 20260509112004 | 63 | 150 | 7.0 | 13.0 | 0.00 | 0.00 | 0.00 | 76 | 1048.6 |
| 20260509111943 | 63 | 41 | 7.0 | 13.0 | 0.00 | 0.00 | 0.00 | 77 | 1048.5 |
| 20260509111931 | 63 | 64 | 7.0 | 13.0 | 0.00 | 0.00 | 0.00 | 77 | 1048.5 |
| 20260509111924 | 63 | 64 | 7.0 | 13.0 | 0.00 | 0.00 | 0.00 | 77 | 1048.5 |
| 20260509111600 | 63 | 135 | 6.0 | 13.0 | 0.00 | 0.00 | 0.00 | 77 | 1048.6 |
| 20260509111534 | 63 | 147 | 6.0 | 13.0 | 0.00 | 0.00 | 0.00 | 77 | 1048.5 |
| 20260509111528 | 63 | 110 | 6.0 | 12.0 | 0.00 | 0.00 | 0.00 | 78 | 1048.5 |
| 20260509111516 | 63 | 138 | 5.0 | 12.0 | 0.00 | 0.00 | 0.00 | 79 | 1048.4 |
| 20260509111154 | 63 | 67 | 5.0 | 12.0 | 0.00 | 0.00 | 0.00 | 79 | 1048.4 |
| 20260509111054 | 63 | 130 | 5.0 | 10.0 | 0.00 | 0.00 | 0.00 | 80 | 1048.4 |
| 20260509110954 | 63 | 115 | 4.0 | 10.0 | 0.00 | 0.00 | 0.00 | 80 | 1048.4 |
| 20260509110928 | 63 | 94 | 5.0 | 10.0 | 0.00 | 0.00 | 0.00 | 80 | 1048.3 |
| 20260509110918 | 63 | 92 | 5.0 | 10.0 | 0.00 | 0.00 | 0.00 | 80 | 1048.2 |
| 20260509110910 | 63 | 92 | 5.0 | 10.0 | 0.00 | 0.00 | 0.00 | 80 | 1048.2 |
| 20260509110629 | 63 | 96 | 5.0 | 10.0 | 0.00 | 0.00 | 0.00 | 79 | 1048.2 |
| 20260509110621 | 63 | 96 | 5.0 | 10.0 | 0.00 | 0.00 | 0.00 | 79 | 1048.2 |
| 20260509110334 | 63 | 103 | 5.0 | 10.0 | 0.00 | 0.00 | 0.00 | 79 | 1048.2 |
| 20260509110314 | 63 | 106 | 5.0 | 10.0 | 0.00 | 0.00 | 0.00 | 80 | 1048.2 |
| 20260509110305 | 63 | 106 | 5.0 | 10.0 | 0.00 | 0.00 | 0.00 | 80 | 1048.2 |
| 20260509105945 | 63 | 76 | 5.0 | 10.0 | 0.00 | 0.00 | 0.00 | 80 | 1048.1 |
| 20260509105845 | 63 | 99 | 5.0 | 9.0 | 0.00 | 0.00 | 0.00 | 80 | 1048.2 |
| 20260509105820 | 63 | 102 | 5.0 | 9.0 | 0.00 | 0.00 | 0.00 | 80 | 1048.2 |
| 20260509105809 | 63 | 85 | 5.0 | 9.0 | 0.00 | 0.00 | 0.00 | 80 | 1048.2 |
| 20260509105758 | 63 | 62 | 5.0 | 9.0 | 0.00 | 0.00 | 0.00 | 80 | 1048.2 |
| 20260509105523 | 63 | 73 | 5.0 | 9.0 | 0.00 | 0.00 | 0.00 | 80 | 1048.1 |
| 20260509105245 | 63 | 95 | 5.0 | 9.0 | 0.00 | 0.00 | 0.00 | 80 | 1048.1 |
| 20260509105141 | 63 | 105 | 5.0 | 9.0 | 0.00 | 0.00 | 0.00 | 80 | 1048.1 |
| 20260509105041 | 63 | 68 | 5.0 | 9.0 | 0.00 | 0.00 | 0.00 | 80 | 1048.1 |
| 20260509104944 | 63 | 85 | 4.0 | 8.0 | 0.00 | 0.00 | 0.00 | 80 | 1048.1 |
| 20260509104848 | 63 | 95 | 4.0 | 8.0 | 0.00 | 0.00 | 0.00 | 80 | 1048.1 |
| 20260509104836 | 63 | 79 | 4.0 | 8.0 | 0.00 | 0.00 | 0.00 | 80 | 1048.1 |
| 20260509104827 | 63 | 80 | 4.0 | 8.0 | 0.00 | 0.00 | 0.00 | 80 | 1048.1 |
| 20260509104818 | 63 | 51 | 4.0 | 8.0 | 0.00 | 0.00 | 0.00 | 80 | 1048.1 |
| 20260509104809 | 63 | 68 | 4.0 | 7.0 | 0.00 | 0.00 | 0.00 | 80 | 1048.1 |
| 20260509104801 | 63 | 68 | 3.0 | 7.0 | 0.00 | 0.00 | 0.00 | 80 | 1048.2 |
| 20260509104310 | 63 | 62 | 3.0 | 7.0 | 0.00 | 0.00 | 0.00 | 80 | 1048.3 |
| 20260509104302 | 63 | 111 | 3.0 | 6.0 | 0.00 | 0.00 | 0.00 | 80 | 1048.3 |
| 20260509103939 | 63 | 112 | 3.0 | 8.0 | 0.00 | 0.00 | 0.00 | 81 | 1048.3 |
| 20260509103910 | 63 | 114 | 3.0 | 8.0 | 0.00 | 0.00 | 0.00 | 81 | 1048.3 |
| 20260509103859 | 63 | 114 | 3.0 | 8.0 | 0.00 | 0.00 | 0.00 | 81 | 1048.3 |
| 20260509103851 | 63 | 114 | 3.0 | 8.0 | 0.00 | 0.00 | 0.00 | 81 | 1048.4 |
| 20260509103837 | 63 | 116 | 3.0 | 8.0 | 0.00 | 0.00 | 0.00 | 81 | 1048.4 |
| 20260509103608 | 63 | 116 | 3.0 | 8.0 | 0.00 | 0.00 | 0.00 | 81 | 1048.5 |
| 20260509103233 | 62 | 115 | 3.0 | 8.0 | 0.00 | 0.00 | 0.00 | 81 | 1048.5 |
| 20260509103133 | 63 | 115 | 3.0 | 8.0 | 0.00 | 0.00 | 0.00 | 81 | 1048.6 |
| 20260509103033 | 62 | 128 | 3.0 | 8.0 | 0.00 | 0.00 | 0.00 | 81 | 1048.6 |
| 20260509102931 | 62 | 129 | 3.0 | 8.0 | 0.00 | 0.00 | 0.00 | 81 | 1048.6 |
| 20260509102853 | 63 | 130 | 3.0 | 8.0 | 0.00 | 0.00 | 0.00 | 81 | 1048.6 |
| 20260509102841 | 63 | 130 | 3.0 | 8.0 | 0.00 | 0.00 | 0.00 | 81 | 1048.6 |
| 20260509102834 | 63 | 138 | 3.0 | 8.0 | 0.00 | 0.00 | 0.00 | 81 | 1048.6 |
| 20260509102822 | 63 | 138 | 3.0 | 8.0 | 0.00 | 0.00 | 0.00 | 81 | 1048.6 |
| 20260509102554 | 63 | 141 | 3.0 | 8.0 | 0.00 | 0.00 | 0.00 | 81 | 1048.6 |
| 20260509102258 | 62 | 102 | 2.0 | 7.0 | 0.00 | 0.00 | 0.00 | 80 | 1048.6 |
| 20260509102231 | 63 | 104 | 2.0 | 6.0 | 0.00 | 0.00 | 0.00 | 80 | 1048.6 |
| 20260509102130 | 62 | 103 | 2.0 | 6.0 | 0.00 | 0.00 | 0.00 | 80 | 1048.6 |
| 20260509102030 | 62 | 99 | 2.0 | 6.0 | 0.00 | 0.00 | 0.00 | 80 | 1048.6 |
| 20260509101943 | 62 | 96 | 2.0 | 4.0 | 0.00 | 0.00 | 0.00 | 80 | 1048.6 |
| 20260509101933 | 62 | 95 | 2.0 | 4.0 | 0.00 | 0.00 | 0.00 | 80 | 1048.6 |
| 20260509101915 | 62 | 95 | 2.0 | 4.0 | 0.00 | 0.00 | 0.00 | 80 | 1048.6 |
| 20260509101908 | 62 | 95 | 2.0 | 4.0 | 0.00 | 0.00 | 0.00 | 80 | 1048.5 |
| 20260509101900 | 62 | 95 | 2.0 | 4.0 | 0.00 | 0.00 | 0.00 | 80 | 1048.5 |
| 20260509101849 | 62 | 95 | 2.0 | 4.0 | 0.00 | 0.00 | 0.00 | 79 | 1048.5 |
| 20260509101838 | 62 | 95 | 2.0 | 4.0 | 0.00 | 0.00 | 0.00 | 80 | 1048.4 |
| 20260509101027 | 62 | 95 | 2.0 | 4.0 | 0.00 | 0.00 | 0.00 | 80 | 1048.5 |
| 20260509100921 | 62 | 95 | 2.0 | 4.0 | 0.00 | 0.00 | 0.00 | 80 | 1048.5 |
| 20260509100819 | 62 | 95 | 2.0 | 4.0 | 0.00 | 0.00 | 0.00 | 79 | 1048.5 |
| 20260509100757 | 62 | 95 | 2.0 | 4.0 | 0.00 | 0.00 | 0.00 | 79 | 1048.5 |
| 20260509100717 | 62 | 95 | 2.0 | 4.0 | 0.00 | 0.00 | 0.00 | 79 | 1048.5 |
| 20260509100617 | 62 | 95 | 2.0 | 4.0 | 0.00 | 0.00 | 0.00 | 79 | 1048.5 |
| 20260509100517 | 62 | 95 | 3.0 | 6.0 | 0.00 | 0.00 | 0.00 | 79 | 1048.4 |
| 20260509100509 | 63 | 95 | 3.0 | 6.0 | 0.00 | 0.00 | 0.00 | 79 | 1048.4 |
| 20260509100459 | 62 | 95 | 3.0 | 6.0 | 0.00 | 0.00 | 0.00 | 79 | 1048.4 |
| 20260509100450 | 63 | 95 | 3.0 | 6.0 | 0.00 | 0.00 | 0.00 | 79 | 1048.4 |
| 20260509100111 | 63 | 95 | 3.0 | 6.0 | 0.00 | 0.00 | 0.00 | 79 | 1048.5 |
| 20260509100103 | 63 | 95 | 3.0 | 6.0 | 0.00 | 0.00 | 0.00 | 79 | 1048.5 |
| 20260509100055 | 63 | 95 | 3.0 | 6.0 | 0.00 | 0.00 | 0.00 | 79 | 1048.5 |
| 20260509100040 | 62 | 95 | 3.0 | 7.0 | 0.00 | 0.00 | 0.00 | 79 | 1048.5 |
| 20260509100027 | 63 | 95 | 3.0 | 7.0 | 0.00 | 0.00 | 0.00 | 79 | 1048.5 |
| 20260509095804 | 63 | 94 | 4.0 | 7.0 | 0.00 | 0.00 | 0.00 | 79 | 1048.4 |
| 20260509095754 | 63 | 95 | 4.0 | 7.0 | 0.00 | 0.00 | 0.00 | 79 | 1048.5 |
| 20260509095747 | 63 | 95 | 4.0 | 7.0 | 0.00 | 0.00 | 0.00 | 79 | 1048.4 |
| 20260509095209 | 63 | 95 | 4.0 | 7.0 | 0.00 | 0.00 | 0.00 | 79 | 1048.5 |
| 20260509095108 | 63 | 95 | 4.0 | 7.0 | 0.00 | 0.00 | 0.00 | 79 | 1048.4 |
| 20260509095007 | 63 | 95 | 4.0 | 8.0 | 0.00 | 0.00 | 0.00 | 79 | 1048.4 |
| 20260509094925 | 63 | 95 | 4.0 | 8.0 | 0.00 | 0.00 | 0.00 | 79 | 1048.4 |
| 20260509094917 | 63 | 96 | 3.0 | 8.0 | 0.00 | 0.00 | 0.00 | 79 | 1048.3 |
| 20260509094902 | 63 | 96 | 3.0 | 8.0 | 0.00 | 0.00 | 0.00 | 79 | 1048.3 |
| 20260509094850 | 63 | 98 | 3.0 | 8.0 | 0.00 | 0.00 | 0.00 | 79 | 1048.3 |
| 20260509094625 | 63 | 99 | 3.0 | 8.0 | 0.00 | 0.00 | 0.00 | 79 | 1048.3 |
| 20260509094321 | 63 | 98 | 2.0 | 8.0 | 0.00 | 0.00 | 0.00 | 80 | 1048.3 |
| 20260509094312 | 63 | 100 | 3.0 | 8.0 | 0.00 | 0.00 | 0.00 | 80 | 1048.3 |
| 20260509094304 | 63 | 100 | 3.0 | 8.0 | 0.00 | 0.00 | 0.00 | 79 | 1048.3 |
| 20260509094252 | 63 | 100 | 3.0 | 8.0 | 0.00 | 0.00 | 0.00 | 79 | 1048.3 |
| 20260509094239 | 63 | 101 | 3.0 | 6.0 | 0.00 | 0.00 | 0.00 | 80 | 1048.3 |
| 20260509094001 | 63 | 101 | 3.0 | 11.0 | 0.00 | 0.00 | 0.00 | 79 | 1048.2 |
| 20260509093731 | 63 | 101 | 3.0 | 11.0 | 0.00 | 0.00 | 0.00 | 80 | 1048.3 |
| 20260509093724 | 63 | 101 | 4.0 | 11.0 | 0.00 | 0.00 | 0.00 | 80 | 1048.2 |
| 20260509093358 | 62 | 102 | 4.0 | 11.0 | 0.00 | 0.00 | 0.00 | 80 | 1048.3 |
| 20260509093240 | 62 | 100 | 4.0 | 11.0 | 0.00 | 0.00 | 0.00 | 80 | 1048.2 |
| 20260509093159 | 62 | 100 | 4.0 | 11.0 | 0.00 | 0.00 | 0.00 | 80 | 1048.2 |
| 20260509093100 | 62 | 101 | 4.0 | 11.0 | 0.00 | 0.00 | 0.00 | 79 | 1048.2 |
| 20260509092959 | 62 | 100 | 4.0 | 11.0 | 0.00 | 0.00 | 0.00 | 79 | 1048.2 |
| 20260509092859 | 62 | 102 | 4.0 | 11.0 | 0.00 | 0.00 | 0.00 | 79 | 1048.2 |
| 20260509092759 | 62 | 131 | 4.0 | 10.0 | 0.00 | 0.00 | 0.00 | 80 | 1048.1 |
| 20260509092736 | 62 | 65 | 5.0 | 10.0 | 0.00 | 0.00 | 0.00 | 79 | 1048.1 |
| 20260509092659 | 62 | 62 | 5.0 | 10.0 | 0.00 | 0.00 | 0.00 | 79 | 1048.1 |
| 20260509092559 | 62 | 62 | 5.0 | 10.0 | 0.00 | 0.00 | 0.00 | 79 | 1048.1 |
| 20260509092459 | 62 | 62 | 5.0 | 10.0 | 0.00 | 0.00 | 0.00 | 79 | 1048.0 |
| 20260509092358 | 62 | 62 | 5.0 | 10.0 | 0.00 | 0.00 | 0.00 | 79 | 1048.0 |
| 20260509092236 | 62 | 66 | 5.0 | 10.0 | 0.00 | 0.00 | 0.00 | 79 | 1048.1 |
| 20260509092157 | 62 | 65 | 5.0 | 10.0 | 0.00 | 0.00 | 0.00 | 79 | 1048.1 |
| 20260509092056 | 62 | 112 | 5.0 | 9.0 | 0.00 | 0.00 | 0.00 | 79 | 1048.1 |
| 20260509091957 | 62 | 112 | 5.0 | 9.0 | 0.00 | 0.00 | 0.00 | 79 | 1048.1 |
| 20260509091855 | 62 | 112 | 5.0 | 9.0 | 0.00 | 0.00 | 0.00 | 79 | 1048.0 |
| 20260509091813 | 62 | 44 | 5.0 | 9.0 | 0.00 | 0.00 | 0.00 | 79 | 1047.9 |
| 20260509091804 | 62 | 62 | 5.0 | 9.0 | 0.00 | 0.00 | 0.00 | 79 | 1047.9 |
| 20260509091754 | 62 | 91 | 5.0 | 9.0 | 0.00 | 0.00 | 0.00 | 79 | 1047.9 |
| 20260509091743 | 62 | 46 | 5.0 | 9.0 | 0.00 | 0.00 | 0.00 | 79 | 1047.8 |
| 20260509091518 | 62 | 90 | 5.0 | 9.0 | 0.00 | 0.00 | 0.00 | 80 | 1047.8 |
| 20260509091502 | 62 | 109 | 5.0 | 9.0 | 0.00 | 0.00 | 0.00 | 80 | 1047.9 |
| 20260509091453 | 62 | 110 | 5.0 | 9.0 | 0.00 | 0.00 | 0.00 | 80 | 1047.9 |
| 20260509091445 | 62 | 112 | 5.0 | 9.0 | 0.00 | 0.00 | 0.00 | 80 | 1047.9 |
| 20260509091437 | 62 | 79 | 5.0 | 9.0 | 0.00 | 0.00 | 0.00 | 79 | 1048.0 |
| 20260509091205 | 62 | 118 | 5.0 | 9.0 | 0.00 | 0.00 | 0.00 | 79 | 1048.0 |
| 20260509091152 | 62 | 85 | 5.0 | 9.0 | 0.00 | 0.00 | 0.00 | 79 | 1048.1 |
| 20260509090923 | 62 | 91 | 5.0 | 9.0 | 0.00 | 0.00 | 0.00 | 79 | 1048.1 |
| 20260509090347 | 63 | 91 | 4.0 | 9.0 | 0.00 | 0.00 | 0.00 | 79 | 1048.1 |
| 20260509090320 | 63 | 78 | 4.0 | 10.0 | 0.00 | 0.00 | 0.00 | 79 | 1048.0 |
| 20260509090312 | 63 | 79 | 5.0 | 10.0 | 0.00 | 0.00 | 0.00 | 79 | 1048.0 |
| 20260509090301 | 63 | 123 | 5.0 | 10.0 | 0.00 | 0.00 | 0.00 | 79 | 1048.0 |
| 20260509090248 | 63 | 129 | 5.0 | 10.0 | 0.00 | 0.00 | 0.00 | 80 | 1048.0 |
| 20260509090007 | 62 | 118 | 5.0 | 10.0 | 0.00 | 0.00 | 0.00 | 80 | 1047.9 |
| 20260509085736 | 62 | 117 | 5.0 | 10.0 | 0.00 | 0.00 | 0.00 | 80 | 1048.0 |
| 20260509085641 | 62 | 117 | 5.0 | 10.0 | 0.00 | 0.00 | 0.00 | 80 | 1047.9 |
| 20260509085539 | 62 | 69 | 5.0 | 10.0 | 0.00 | 0.00 | 0.00 | 80 | 1047.8 |
| 20260509085438 | 62 | 70 | 5.0 | 10.0 | 0.00 | 0.00 | 0.00 | 80 | 1047.9 |
| 20260509085339 | 62 | 70 | 4.0 | 10.0 | 0.00 | 0.00 | 0.00 | 80 | 1047.8 |
| 20260509085246 | 62 | 66 | 4.0 | 9.0 | 0.00 | 0.00 | 0.00 | 80 | 1047.9 |
| 20260509085236 | 62 | 64 | 4.0 | 9.0 | 0.00 | 0.00 | 0.00 | 80 | 1047.9 |
| 20260509085138 | 62 | 60 | 4.0 | 8.0 | 0.00 | 0.00 | 0.00 | 81 | 1047.9 |
| 20260509085039 | 62 | 56 | 4.0 | 8.0 | 0.00 | 0.00 | 0.00 | 81 | 1047.9 |
| 20260509084938 | 62 | 69 | 4.0 | 8.0 | 0.00 | 0.00 | 0.00 | 81 | 1047.9 |
| 20260509084839 | 62 | 68 | 4.0 | 8.0 | 0.00 | 0.00 | 0.00 | 80 | 1047.9 |
| 20260509084754 | 62 | 68 | 3.0 | 8.0 | 0.00 | 0.00 | 0.00 | 80 | 1047.9 |
| 20260509084743 | 62 | 68 | 3.0 | 8.0 | 0.00 | 0.00 | 0.00 | 81 | 1047.8 |
| 20260509084732 | 62 | 65 | 3.0 | 8.0 | 0.00 | 0.00 | 0.00 | 81 | 1047.8 |
| 20260509084722 | 62 | 95 | 3.0 | 8.0 | 0.00 | 0.00 | 0.00 | 81 | 1047.8 |
| 20260509084236 | 62 | 95 | 3.0 | 8.0 | 0.00 | 0.00 | 0.00 | 82 | 1047.8 |
| 20260509084139 | 62 | 77 | 3.0 | 5.0 | 0.00 | 0.00 | 0.00 | 82 | 1047.9 |
| 20260509084050 | 62 | 77 | 3.0 | 5.0 | 0.00 | 0.00 | 0.00 | 82 | 1047.9 |
| 20260509084044 | 62 | 76 | 3.0 | 5.0 | 0.00 | 0.00 | 0.00 | 82 | 1047.9 |
| 20260509084033 | 62 | 75 | 3.0 | 5.0 | 0.00 | 0.00 | 0.00 | 82 | 1048.0 |
| 20260509084015 | 62 | 76 | 3.0 | 9.0 | 0.00 | 0.00 | 0.00 | 82 | 1048.0 |
| 20260509083740 | 62 | 66 | 3.0 | 9.0 | 0.00 | 0.00 | 0.00 | 82 | 1047.9 |
| 20260509083509 | 62 | 66 | 3.0 | 9.0 | 0.00 | 0.00 | 0.00 | 82 | 1048.0 |
| 20260509083238 | 62 | 64 | 3.0 | 9.0 | 0.00 | 0.00 | 0.00 | 82 | 1048.0 |
| 20260509083134 | 62 | 64 | 3.0 | 9.0 | 0.00 | 0.00 | 0.00 | 82 | 1047.9 |
| 20260509083110 | 62 | 65 | 3.0 | 9.0 | 0.00 | 0.00 | 0.00 | 82 | 1048.0 |
| 20260509083103 | 62 | 66 | 3.0 | 9.0 | 0.00 | 0.00 | 0.00 | 82 | 1048.0 |
| 20260509083051 | 62 | 68 | 2.0 | 9.0 | 0.00 | 0.00 | 0.00 | 82 | 1048.0 |
| 20260509082810 | 62 | 97 | 2.0 | 6.0 | 0.00 | 0.00 | 0.00 | 83 | 1047.9 |
| 20260509082755 | 62 | 132 | 2.0 | 6.0 | 0.00 | 0.00 | 0.00 | 82 | 1047.9 |
| 20260509082434 | 62 | 114 | 2.0 | 6.0 | 0.00 | 0.00 | 0.00 | 83 | 1047.9 |
| 20260509082335 | 62 | 113 | 2.0 | 6.0 | 0.00 | 0.00 | 0.00 | 83 | 1047.9 |
| 20260509082239 | 61 | 114 | 2.0 | 6.0 | 0.00 | 0.00 | 0.00 | 83 | 1047.9 |
| 20260509082135 | 61 | 114 | 2.0 | 6.0 | 0.00 | 0.00 | 0.00 | 83 | 1047.9 |
| 20260509082035 | 61 | 114 | 2.0 | 4.0 | 0.00 | 0.00 | 0.00 | 83 | 1047.9 |
| 20260509081935 | 61 | 114 | 2.0 | 6.0 | 0.00 | 0.00 | 0.00 | 83 | 1047.9 |
| 20260509081851 | 61 | 114 | 1.0 | 6.0 | 0.00 | 0.00 | 0.00 | 83 | 1048.0 |
| 20260509081835 | 61 | 114 | 2.0 | 6.0 | 0.00 | 0.00 | 0.00 | 83 | 1047.9 |
| 20260509081818 | 61 | 114 | 2.0 | 6.0 | 0.00 | 0.00 | 0.00 | 83 | 1047.9 |
| 20260509081810 | 61 | 114 | 2.0 | 6.0 | 0.00 | 0.00 | 0.00 | 83 | 1048.0 |
| 20260509081539 | 61 | 114 | 2.0 | 6.0 | 0.00 | 0.00 | 0.00 | 83 | 1048.0 |
| 20260509081517 | 61 | 114 | 2.0 | 6.0 | 0.00 | 0.00 | 0.00 | 83 | 1048.0 |
| 20260509080935 | 61 | 116 | 3.0 | 7.0 | 0.00 | 0.00 | 0.00 | 83 | 1048.0 |
| 20260509080835 | 61 | 116 | 3.0 | 7.0 | 0.00 | 0.00 | 0.00 | 83 | 1048.0 |
| 20260509080732 | 61 | 116 | 3.0 | 7.0 | 0.00 | 0.00 | 0.00 | 83 | 1048.0 |
| 20260509080635 | 61 | 116 | 3.0 | 7.0 | 0.00 | 0.00 | 0.00 | 83 | 1047.9 |
| 20260509080535 | 61 | 116 | 3.0 | 7.0 | 0.00 | 0.00 | 0.00 | 83 | 1047.9 |
| 20260509080454 | 61 | 116 | 3.0 | 7.0 | 0.00 | 0.00 | 0.00 | 83 | 1048.0 |
| 20260509080447 | 61 | 116 | 3.0 | 7.0 | 0.00 | 0.00 | 0.00 | 83 | 1048.0 |
| 20260509080427 | 61 | 117 | 4.0 | 7.0 | 0.00 | 0.00 | 0.00 | 83 | 1047.9 |
| 20260509080415 | 61 | 117 | 4.0 | 8.0 | 0.00 | 0.00 | 0.00 | 83 | 1047.9 |
| 20260509075833 | 61 | 65 | 4.0 | 8.0 | 0.00 | 0.00 | 0.00 | 84 | 1047.9 |
| 20260509075735 | 61 | 66 | 4.0 | 8.0 | 0.00 | 0.00 | 0.00 | 84 | 1047.8 |
| 20260509075657 | 61 | 64 | 4.0 | 8.0 | 0.00 | 0.00 | 0.00 | 84 | 1047.8 |
| 20260509075649 | 61 | 64 | 5.0 | 8.0 | 0.00 | 0.00 | 0.00 | 83 | 1047.7 |
| 20260509075638 | 61 | 64 | 4.0 | 9.0 | 0.00 | 0.00 | 0.00 | 84 | 1047.7 |
| 20260509075628 | 61 | 44 | 5.0 | 9.0 | 0.00 | 0.00 | 0.00 | 83 | 1047.7 |
| 20260509075619 | 61 | 43 | 4.0 | 9.0 | 0.00 | 0.00 | 0.00 | 83 | 1047.7 |
| 20260509075036 | 60 | 88 | 4.0 | 9.0 | 0.00 | 0.00 | 0.00 | 84 | 1047.7 |
| 20260509075019 | 60 | 77 | 4.0 | 9.0 | 0.00 | 0.00 | 0.00 | 83 | 1047.7 |
| 20260509075008 | 60 | 69 | 4.0 | 9.0 | 0.00 | 0.00 | 0.00 | 83 | 1047.7 |
| 20260509074950 | 60 | 137 | 4.0 | 9.0 | 0.00 | 0.00 | 0.00 | 83 | 1047.7 |
| 20260509074631 | 60 | 102 | 4.0 | 9.0 | 0.00 | 0.00 | 0.00 | 84 | 1047.7 |
| 20260509074530 | 60 | 56 | 4.0 | 9.0 | 0.00 | 0.00 | 0.00 | 84 | 1047.8 |
| 20260509074431 | 60 | 112 | 4.0 | 9.0 | 0.00 | 0.00 | 0.00 | 84 | 1047.8 |
| 20260509074331 | 60 | 114 | 3.0 | 9.0 | 0.00 | 0.00 | 0.00 | 84 | 1047.8 |
| 20260509074234 | 60 | 112 | 3.0 | 9.0 | 0.00 | 0.00 | 0.00 | 84 | 1047.9 |
| 20260509074131 | 60 | 110 | 3.0 | 9.0 | 0.00 | 0.00 | 0.00 | 84 | 1047.9 |
| 20260509074031 | 60 | 110 | 3.0 | 9.0 | 0.00 | 0.00 | 0.00 | 84 | 1047.9 |
| 20260509073931 | 60 | 112 | 3.0 | 9.0 | 0.00 | 0.00 | 0.00 | 84 | 1047.8 |
| 20260509073831 | 60 | 112 | 3.0 | 9.0 | 0.00 | 0.00 | 0.00 | 85 | 1047.8 |
| 20260509073806 | 60 | 131 | 3.0 | 9.0 | 0.00 | 0.00 | 0.00 | 85 | 1047.8 |
| 20260509073751 | 60 | 106 | 3.0 | 9.0 | 0.00 | 0.00 | 0.00 | 85 | 1047.8 |
| 20260509073431 | 60 | 68 | 3.0 | 7.0 | 0.00 | 0.00 | 0.00 | 85 | 1047.9 |
| 20260509073348 | 60 | 69 | 3.0 | 7.0 | 0.00 | 0.00 | 0.00 | 85 | 1047.9 |
| 20260509073337 | 60 | 69 | 4.0 | 10.0 | 0.00 | 0.00 | 0.00 | 85 | 1047.9 |
| 20260509073328 | 60 | 68 | 4.0 | 10.0 | 0.00 | 0.00 | 0.00 | 85 | 1047.9 |
| 20260509073318 | 60 | 69 | 4.0 | 10.0 | 0.00 | 0.00 | 0.00 | 84 | 1048.0 |
| 20260509073307 | 60 | 69 | 4.0 | 10.0 | 0.00 | 0.00 | 0.00 | 84 | 1048.1 |
| 20260509073258 | 60 | 72 | 4.0 | 10.0 | 0.00 | 0.00 | 0.00 | 84 | 1048.0 |
| 20260509073017 | 60 | 73 | 4.0 | 10.0 | 0.00 | 0.00 | 0.00 | 84 | 1048.1 |
| 20260509072426 | 60 | 72 | 3.0 | 10.0 | 0.00 | 0.00 | 0.00 | 84 | 1048.0 |
| 20260509072326 | 60 | 72 | 3.0 | 10.0 | 0.00 | 0.00 | 0.00 | 84 | 1048.0 |
| 20260509072236 | 60 | 97 | 3.0 | 9.0 | 0.00 | 0.00 | 0.00 | 84 | 1048.0 |
| 20260509072227 | 60 | 96 | 3.0 | 9.0 | 0.00 | 0.00 | 0.00 | 84 | 1048.0 |
| 20260509072127 | 60 | 78 | 2.0 | 8.0 | 0.00 | 0.00 | 0.00 | 84 | 1048.0 |
| 20260509072026 | 60 | 58 | 2.0 | 5.0 | 0.00 | 0.00 | 0.00 | 84 | 1048.0 |
| 20260509071928 | 60 | 58 | 3.0 | 5.0 | 0.00 | 0.00 | 0.00 | 84 | 1048.1 |
| 20260509071826 | 60 | 58 | 3.0 | 5.0 | 0.00 | 0.00 | 0.00 | 84 | 1048.1 |
| 20260509071735 | 60 | 59 | 3.0 | 5.0 | 0.00 | 0.00 | 0.00 | 85 | 1048.1 |
| 20260509071726 | 60 | 58 | 3.0 | 5.0 | 0.00 | 0.00 | 0.00 | 85 | 1048.1 |
| 20260509071626 | 60 | 58 | 3.0 | 5.0 | 0.00 | 0.00 | 0.00 | 85 | 1048.2 |
| 20260509071527 | 60 | 58 | 3.0 | 6.0 | 0.00 | 0.00 | 0.00 | 85 | 1048.2 |
| 20260509071426 | 60 | 58 | 3.0 | 6.0 | 0.00 | 0.00 | 0.00 | 85 | 1048.3 |
| 20260509071324 | 60 | 58 | 3.0 | 6.0 | 0.00 | 0.00 | 0.00 | 85 | 1048.2 |
| 20260509071232 | 60 | 59 | 3.0 | 6.0 | 0.00 | 0.00 | 0.00 | 84 | 1048.3 |
| 20260509071220 | 60 | 58 | 3.0 | 6.0 | 0.00 | 0.00 | 0.00 | 84 | 1048.3 |
| 20260509071119 | 60 | 58 | 3.0 | 6.0 | 0.00 | 0.00 | 0.00 | 85 | 1048.2 |
| 20260509071021 | 60 | 59 | 3.0 | 6.0 | 0.00 | 0.00 | 0.00 | 84 | 1048.2 |
| 20260509070958 | 60 | 56 | 3.0 | 6.0 | 0.00 | 0.00 | 0.00 | 84 | 1048.2 |
| 20260509070946 | 60 | 56 | 3.0 | 6.0 | 0.00 | 0.00 | 0.00 | 84 | 1048.1 |
| 20260509070924 | 60 | 56 | 3.0 | 6.0 | 0.00 | 0.00 | 0.00 | 85 | 1048.1 |
| 20260509070659 | 60 | 56 | 3.0 | 6.0 | 0.00 | 0.00 | 0.00 | 85 | 1048.2 |
| 20260509070650 | 60 | 55 | 3.0 | 6.0 | 0.00 | 0.00 | 0.00 | 85 | 1048.1 |
| 20260509070642 | 60 | 54 | 3.0 | 6.0 | 0.00 | 0.00 | 0.00 | 85 | 1048.1 |
| 20260509070627 | 60 | 51 | 3.0 | 6.0 | 0.00 | 0.00 | 0.00 | 85 | 1048.1 |
| 20260509070618 | 60 | 57 | 3.0 | 6.0 | 0.00 | 0.00 | 0.00 | 85 | 1048.1 |
| 20260509070130 | 59 | 54 | 3.0 | 7.0 | 0.00 | 0.00 | 0.00 | 85 | 1048.1 |
| 20260509065806 | 59 | 54 | 3.0 | 7.0 | 0.00 | 0.00 | 0.00 | 85 | 1048.2 |
| 20260509065708 | 59 | 54 | 3.0 | 7.0 | 0.00 | 0.00 | 0.00 | 85 | 1048.1 |
| 20260509065624 | 59 | 54 | 3.0 | 7.0 | 0.00 | 0.00 | 0.00 | 85 | 1048.2 |
| 20260509065616 | 59 | 54 | 3.0 | 7.0 | 0.00 | 0.00 | 0.00 | 85 | 1048.2 |
| 20260509065602 | 59 | 54 | 4.0 | 7.0 | 0.00 | 0.00 | 0.00 | 85 | 1048.2 |
| 20260509065551 | 59 | 54 | 3.0 | 7.0 | 0.00 | 0.00 | 0.00 | 85 | 1048.1 |
| 20260509065542 | 59 | 54 | 3.0 | 7.0 | 0.00 | 0.00 | 0.00 | 85 | 1048.2 |
| 20260509065002 | 59 | 50 | 3.0 | 7.0 | 0.00 | 0.00 | 0.00 | 85 | 1048.2 |
| 20260509064902 | 59 | 50 | 3.0 | 7.0 | 0.00 | 0.00 | 0.00 | 85 | 1048.2 |
| 20260509064802 | 59 | 50 | 3.0 | 7.0 | 0.00 | 0.00 | 0.00 | 85 | 1048.3 |
| 20260509064732 | 59 | 50 | 2.0 | 7.0 | 0.00 | 0.00 | 0.00 | 85 | 1048.3 |
| 20260509064702 | 59 | 50 | 2.0 | 7.0 | 0.00 | 0.00 | 0.00 | 85 | 1048.3 |
| 20260509064602 | 59 | 50 | 2.0 | 7.0 | 0.00 | 0.00 | 0.00 | 85 | 1048.4 |
| 20260509064458 | 59 | 50 | 2.0 | 7.0 | 0.00 | 0.00 | 0.00 | 85 | 1048.4 |
| 20260509064358 | 59 | 49 | 2.0 | 5.0 | 0.00 | 0.00 | 0.00 | 85 | 1048.4 |
| 20260509064258 | 59 | 49 | 2.0 | 5.0 | 0.00 | 0.00 | 0.00 | 85 | 1048.5 |
| 20260509064232 | 59 | 48 | 2.0 | 5.0 | 0.00 | 0.00 | 0.00 | 85 | 1048.5 |
| 20260509064158 | 59 | 48 | 2.0 | 5.0 | 0.00 | 0.00 | 0.00 | 85 | 1048.5 |
| 20260509064058 | 59 | 48 | 2.0 | 5.0 | 0.00 | 0.00 | 0.00 | 85 | 1048.4 |
| 20260509064000 | 59 | 48 | 2.0 | 6.0 | 0.00 | 0.00 | 0.00 | 86 | 1048.4 |
| 20260509063858 | 59 | 48 | 2.0 | 9.0 | 0.00 | 0.00 | 0.00 | 86 | 1048.4 |
| 20260509063757 | 59 | 50 | 2.0 | 9.0 | 0.00 | 0.00 | 0.00 | 86 | 1048.4 |
| 20260509063732 | 59 | 51 | 3.0 | 9.0 | 0.00 | 0.00 | 0.00 | 86 | 1048.4 |
| 20260509063658 | 59 | 51 | 3.0 | 9.0 | 0.00 | 0.00 | 0.00 | 86 | 1048.4 |
| 20260509063608 | 59 | 51 | 3.0 | 9.0 | 0.00 | 0.00 | 0.00 | 86 | 1048.3 |
| 20260509063558 | 59 | 51 | 2.0 | 9.0 | 0.00 | 0.00 | 0.00 | 86 | 1048.3 |
| 20260509063551 | 59 | 51 | 2.0 | 9.0 | 0.00 | 0.00 | 0.00 | 86 | 1048.3 |
| 20260509063538 | 59 | 51 | 2.0 | 9.0 | 0.00 | 0.00 | 0.00 | 86 | 1048.3 |
| 20260509063529 | 59 | 50 | 2.0 | 9.0 | 0.00 | 0.00 | 0.00 | 86 | 1048.3 |
| 20260509063518 | 59 | 51 | 2.0 | 9.0 | 0.00 | 0.00 | 0.00 | 86 | 1048.3 |
| 20260509063508 | 59 | 50 | 2.0 | 9.0 | 0.00 | 0.00 | 0.00 | 86 | 1048.3 |
| 20260509063457 | 59 | 51 | 2.0 | 9.0 | 0.00 | 0.00 | 0.00 | 86 | 1048.3 |
| 20260509063231 | 59 | 60 | 2.0 | 6.0 | 0.00 | 0.00 | 0.00 | 87 | 1048.3 |
| 20260509063222 | 59 | 61 | 2.0 | 6.0 | 0.00 | 0.00 | 0.00 | 87 | 1048.3 |
| 20260509063202 | 59 | 60 | 2.0 | 6.0 | 0.00 | 0.00 | 0.00 | 87 | 1048.3 |
| 20260509062714 | 58 | 61 | 3.0 | 6.0 | 0.00 | 0.00 | 0.00 | 87 | 1048.3 |
| 20260509062655 | 58 | 62 | 3.0 | 6.0 | 0.00 | 0.00 | 0.00 | 87 | 1048.3 |
| 20260509062415 | 58 | 52 | 3.0 | 5.0 | 0.00 | 0.00 | 0.00 | 87 | 1048.3 |
| 20260509062143 | 58 | 52 | 3.0 | 6.0 | 0.00 | 0.00 | 0.00 | 87 | 1048.4 |
| 20260509061917 | 58 | 52 | 4.0 | 7.0 | 0.00 | 0.00 | 0.00 | 87 | 1048.3 |
| 20260509061548 | 58 | 52 | 3.0 | 7.0 | 0.00 | 0.00 | 0.00 | 87 | 1048.2 |
| 20260509061448 | 58 | 52 | 3.0 | 7.0 | 0.00 | 0.00 | 0.00 | 87 | 1048.3 |
| 20260509061346 | 58 | 52 | 3.0 | 7.0 | 0.00 | 0.00 | 0.00 | 87 | 1048.3 |
| 20260509061245 | 58 | 51 | 3.0 | 7.0 | 0.00 | 0.00 | 0.00 | 87 | 1048.4 |
| 20260509061231 | 58 | 50 | 3.0 | 7.0 | 0.00 | 0.00 | 0.00 | 87 | 1048.4 |
| 20260509061142 | 58 | 50 | 3.0 | 7.0 | 0.00 | 0.00 | 0.00 | 87 | 1048.5 |
| 20260509061106 | 58 | 50 | 3.0 | 7.0 | 0.00 | 0.00 | 0.00 | 88 | 1048.5 |
| 20260509061059 | 58 | 59 | 2.0 | 7.0 | 0.00 | 0.00 | 0.00 | 88 | 1048.4 |
| 20260509060732 | 58 | 168 | 2.0 | 6.0 | 0.00 | 0.00 | 0.00 | 88 | 1048.5 |
| 20260509060651 | 58 | 171 | 2.0 | 5.0 | 0.00 | 0.00 | 0.00 | 88 | 1048.5 |
| 20260509060642 | 58 | 172 | 2.0 | 5.0 | 0.00 | 0.00 | 0.00 | 88 | 1048.5 |
| 20260509060629 | 58 | 172 | 2.0 | 5.0 | 0.00 | 0.00 | 0.00 | 88 | 1048.5 |
| 20260509060615 | 58 | 172 | 2.0 | 5.0 | 0.00 | 0.00 | 0.00 | 88 | 1048.5 |
| 20260509060604 | 58 | 171 | 2.0 | 5.0 | 0.00 | 0.00 | 0.00 | 88 | 1048.5 |
| 20260509060330 | 58 | 174 | 2.0 | 4.0 | 0.00 | 0.00 | 0.00 | 88 | 1048.5 |
| 20260509060057 | 58 | 174 | 2.0 | 3.0 | 0.00 | 0.00 | 0.00 | 88 | 1048.5 |
| 20260509055734 | 58 | 174 | 2.0 | 3.0 | 0.00 | 0.00 | 0.00 | 88 | 1048.6 |
| 20260509055631 | 58 | 174 | 2.0 | 3.0 | 0.00 | 0.00 | 0.00 | 88 | 1048.6 |
| 20260509055532 | 58 | 174 | 2.0 | 4.0 | 0.00 | 0.00 | 0.00 | 89 | 1048.6 |
| 20260509055432 | 57 | 174 | 2.0 | 4.0 | 0.00 | 0.00 | 0.00 | 89 | 1048.6 |
| 20260509055331 | 57 | 173 | 2.0 | 4.0 | 0.00 | 0.00 | 0.00 | 89 | 1048.6 |
| 20260509055233 | 57 | 174 | 2.0 | 4.0 | 0.00 | 0.00 | 0.00 | 89 | 1048.6 |
| 20260509055156 | 57 | 175 | 2.0 | 4.0 | 0.00 | 0.00 | 0.00 | 89 | 1048.6 |
| 20260509055148 | 57 | 175 | 2.0 | 4.0 | 0.00 | 0.00 | 0.00 | 89 | 1048.6 |
| 20260509055137 | 57 | 175 | 2.0 | 4.0 | 0.00 | 0.00 | 0.00 | 89 | 1048.6 |
| 20260509055127 | 57 | 175 | 2.0 | 4.0 | 0.00 | 0.00 | 0.00 | 89 | 1048.6 |
| 20260509054902 | 57 | 175 | 1.0 | 4.0 | 0.00 | 0.00 | 0.00 | 89 | 1048.6 |
| 20260509054531 | 57 | 175 | 1.0 | 4.0 | 0.00 | 0.00 | 0.00 | 89 | 1048.5 |
| 20260509054431 | 57 | 176 | 1.0 | 4.0 | 0.00 | 0.00 | 0.00 | 89 | 1048.5 |
| 20260509054331 | 57 | 177 | 1.0 | 4.0 | 0.00 | 0.00 | 0.00 | 89 | 1048.5 |
| 20260509054249 | 57 | 177 | 1.0 | 4.0 | 0.00 | 0.00 | 0.00 | 90 | 1048.5 |
| 20260509054238 | 57 | 177 | 1.0 | 4.0 | 0.00 | 0.00 | 0.00 | 90 | 1048.5 |
| 20260509054227 | 57 | 179 | 1.0 | 4.0 | 0.00 | 0.00 | 0.00 | 90 | 1048.5 |
| 20260509054218 | 57 | 180 | 1.0 | 4.0 | 0.00 | 0.00 | 0.00 | 90 | 1048.4 |
| 20260509053947 | 57 | 180 | 1.0 | 4.0 | 0.00 | 0.00 | 0.00 | 90 | 1048.4 |
| 20260509053707 | 57 | 180 | 1.0 | 4.0 | 0.00 | 0.00 | 0.00 | 90 | 1048.4 |
| 20260509053659 | 57 | 180 | 1.0 | 4.0 | 0.00 | 0.00 | 0.00 | 90 | 1048.4 |
| 20260509053347 | 57 | 181 | 1.0 | 4.0 | 0.00 | 0.00 | 0.00 | 90 | 1048.4 |
| 20260509053332 | 57 | 180 | 1.0 | 4.0 | 0.00 | 0.00 | 0.00 | 90 | 1048.4 |
| 20260509053315 | 57 | 181 | 1.0 | 4.0 | 0.00 | 0.00 | 0.00 | 90 | 1048.4 |
| 20260509053306 | 57 | 181 | 1.0 | 4.0 | 0.00 | 0.00 | 0.00 | 90 | 1048.4 |
| 20260509053039 | 57 | 181 | 1.0 | 4.0 | 0.00 | 0.00 | 0.00 | 90 | 1048.3 |
| 20260509053024 | 57 | 180 | 2.0 | 4.0 | 0.00 | 0.00 | 0.00 | 90 | 1048.3 |
| 20260509052759 | 57 | 181 | 2.0 | 4.0 | 0.00 | 0.00 | 0.00 | 90 | 1048.3 |
| 20260509052433 | 57 | 182 | 2.0 | 4.0 | 0.00 | 0.00 | 0.00 | 90 | 1048.3 |
| 20260509052332 | 57 | 183 | 2.0 | 4.0 | 0.00 | 0.00 | 0.00 | 90 | 1048.3 |
| 20260509052234 | 57 | 182 | 2.0 | 3.0 | 0.00 | 0.00 | 0.00 | 90 | 1048.3 |
| 20260509052132 | 57 | 182 | 2.0 | 3.0 | 0.00 | 0.00 | 0.00 | 90 | 1048.3 |
| 20260509052032 | 57 | 182 | 2.0 | 3.0 | 0.00 | 0.00 | 0.00 | 90 | 1048.3 |
| 20260509051933 | 57 | 182 | 2.0 | 3.0 | 0.00 | 0.00 | 0.00 | 90 | 1048.3 |
| 20260509051832 | 57 | 182 | 2.0 | 3.0 | 0.00 | 0.00 | 0.00 | 90 | 1048.4 |
| 20260509051736 | 57 | 183 | 1.0 | 3.0 | 0.00 | 0.00 | 0.00 | 90 | 1048.4 |
| 20260509051631 | 57 | 182 | 1.0 | 3.0 | 0.00 | 0.00 | 0.00 | 90 | 1048.4 |
| 20260509051531 | 57 | 181 | 1.0 | 3.0 | 0.00 | 0.00 | 0.00 | 90 | 1048.5 |
| 20260509051431 | 57 | 182 | 1.0 | 2.0 | 0.00 | 0.00 | 0.00 | 90 | 1048.5 |
| 20260509051332 | 57 | 183 | 1.0 | 2.0 | 0.00 | 0.00 | 0.00 | 90 | 1048.4 |
| 20260509051235 | 57 | 183 | 1.0 | 2.0 | 0.00 | 0.00 | 0.00 | 90 | 1048.4 |
| 20260509051131 | 57 | 182 | 1.0 | 2.0 | 0.00 | 0.00 | 0.00 | 90 | 1048.3 |
| 20260509051032 | 57 | 182 | 1.0 | 2.0 | 0.00 | 0.00 | 0.00 | 90 | 1048.3 |
| 20260509050932 | 57 | 182 | 1.0 | 2.0 | 0.00 | 0.00 | 0.00 | 90 | 1048.3 |
| 20260509050832 | 57 | 182 | 1.0 | 2.0 | 0.00 | 0.00 | 0.00 | 90 | 1048.3 |
| 20260509050733 | 57 | 183 | 1.0 | 2.0 | 0.00 | 0.00 | 0.00 | 90 | 1048.3 |
| 20260509050631 | 57 | 182 | 1.0 | 2.0 | 0.00 | 0.00 | 0.00 | 90 | 1048.4 |
| 20260509050605 | 57 | 181 | 1.0 | 2.0 | 0.00 | 0.00 | 0.00 | 90 | 1048.4 |
| 20260509050558 | 57 | 182 | 1.0 | 2.0 | 0.00 | 0.00 | 0.00 | 90 | 1048.4 |
| 20260509050236 | 57 | 181 | 0.0 | 2.0 | 0.00 | 0.00 | 0.00 | 90 | 1048.4 |
| 20260509050132 | 57 | 183 | 0.0 | 2.0 | 0.00 | 0.00 | 0.00 | 90 | 1048.4 |
| 20260509050032 | 57 | 181 | 0.0 | 1.0 | 0.00 | 0.00 | 0.00 | 90 | 1048.4 |
| 20260509045932 | 57 | 182 | 0.0 | 1.0 | 0.00 | 0.00 | 0.00 | 90 | 1048.5 |
| 20260509045832 | 57 | 182 | 1.0 | 2.0 | 0.00 | 0.00 | 0.00 | 90 | 1048.5 |
| 20260509045733 | 57 | 182 | 1.0 | 2.0 | 0.00 | 0.00 | 0.00 | 90 | 1048.6 |
| 20260509045631 | 57 | 182 | 1.0 | 2.0 | 0.00 | 0.00 | 0.00 | 90 | 1048.5 |
| 20260509045532 | 57 | 182 | 1.0 | 2.0 | 0.00 | 0.00 | 0.00 | 90 | 1048.6 |
| 20260509045432 | 57 | 182 | 1.0 | 3.0 | 0.00 | 0.00 | 0.00 | 90 | 1048.5 |
| 20260509045415 | 57 | 181 | 1.0 | 3.0 | 0.00 | 0.00 | 0.00 | 90 | 1048.5 |
| 20260509045401 | 57 | 181 | 1.0 | 3.0 | 0.00 | 0.00 | 0.00 | 90 | 1048.5 |
| 20260509045033 | 57 | 182 | 2.0 | 3.0 | 0.00 | 0.00 | 0.00 | 90 | 1048.5 |
| 20260509044931 | 57 | 182 | 1.0 | 3.0 | 0.00 | 0.00 | 0.00 | 90 | 1048.5 |
| 20260509044831 | 57 | 182 | 1.0 | 3.0 | 0.00 | 0.00 | 0.00 | 90 | 1048.5 |
| 20260509044757 | 57 | 182 | 1.0 | 3.0 | 0.00 | 0.00 | 0.00 | 90 | 1048.5 |
| 20260509044742 | 57 | 181 | 1.0 | 3.0 | 0.00 | 0.00 | 0.00 | 90 | 1048.5 |
| 20260509044500 | 57 | 181 | 1.0 | 2.0 | 0.00 | 0.00 | 0.00 | 90 | 1048.5 |
| 20260509044452 | 57 | 182 | 1.0 | 2.0 | 0.00 | 0.00 | 0.00 | 90 | 1048.5 |
| 20260509044440 | 57 | 182 | 1.0 | 2.0 | 0.00 | 0.00 | 0.00 | 90 | 1048.5 |
| 20260509044145 | 57 | 182 | 1.0 | 2.0 | 0.00 | 0.00 | 0.00 | 90 | 1048.4 |
| 20260509044138 | 57 | 181 | 1.0 | 2.0 | 0.00 | 0.00 | 0.00 | 90 | 1048.4 |
| 20260509043856 | 57 | 182 | 1.0 | 2.0 | 0.00 | 0.00 | 0.00 | 90 | 1048.4 |
| 20260509043834 | 57 | 182 | 1.0 | 2.0 | 0.00 | 0.00 | 0.00 | 90 | 1048.3 |
| 20260509043507 | 57 | 182 | 2.0 | 3.0 | 0.00 | 0.00 | 0.00 | 90 | 1048.4 |
| 20260509043408 | 57 | 182 | 2.0 | 3.0 | 0.00 | 0.00 | 0.00 | 90 | 1048.3 |
| 20260509043308 | 57 | 181 | 2.0 | 3.0 | 0.00 | 0.00 | 0.00 | 90 | 1048.4 |
| 20260509043208 | 57 | 182 | 2.0 | 3.0 | 0.00 | 0.00 | 0.00 | 90 | 1048.4 |
| 20260509043108 | 57 | 182 | 2.0 | 3.0 | 0.00 | 0.00 | 0.00 | 90 | 1048.4 |
| 20260509043011 | 57 | 182 | 2.0 | 3.0 | 0.00 | 0.00 | 0.00 | 90 | 1048.5 |
| 20260509042906 | 57 | 182 | 1.0 | 3.0 | 0.00 | 0.00 | 0.00 | 90 | 1048.5 |
| 20260509042820 | 57 | 182 | 1.0 | 3.0 | 0.00 | 0.00 | 0.00 | 90 | 1048.4 |
| 20260509042803 | 57 | 181 | 1.0 | 3.0 | 0.00 | 0.00 | 0.00 | 90 | 1048.4 |
| 20260509042755 | 57 | 182 | 1.0 | 3.0 | 0.00 | 0.00 | 0.00 | 90 | 1048.4 |
| 20260509042745 | 57 | 182 | 1.0 | 3.0 | 0.00 | 0.00 | 0.00 | 90 | 1048.4 |
| 20260509042738 | 57 | 182 | 1.0 | 3.0 | 0.00 | 0.00 | 0.00 | 90 | 1048.5 |
| 20260509042450 | 57 | 182 | 1.0 | 2.0 | 0.00 | 0.00 | 0.00 | 90 | 1048.5 |
| 20260509042443 | 57 | 181 | 1.0 | 2.0 | 0.00 | 0.00 | 0.00 | 90 | 1048.5 |
| 20260509041900 | 57 | 181 | 1.0 | 2.0 | 0.00 | 0.00 | 0.00 | 90 | 1048.3 |
| 20260509041800 | 57 | 183 | 0.0 | 2.0 | 0.00 | 0.00 | 0.00 | 90 | 1048.4 |
| 20260509041735 | 57 | 182 | 0.0 | 2.0 | 0.00 | 0.00 | 0.00 | 90 | 1048.4 |
| 20260509041702 | 57 | 182 | 0.0 | 2.0 | 0.00 | 0.00 | 0.00 | 90 | 1048.4 |
| 20260509041631 | 57 | 181 | 0.0 | 2.0 | 0.00 | 0.00 | 0.00 | 90 | 1048.4 |
| 20260509041623 | 57 | 182 | 0.0 | 2.0 | 0.00 | 0.00 | 0.00 | 90 | 1048.4 |
| 20260509041300 | 57 | 182 | 0.0 | 2.0 | 0.00 | 0.00 | 0.00 | 90 | 1048.5 |
| 20260509041232 | 57 | 181 | 0.0 | 2.0 | 0.00 | 0.00 | 0.00 | 90 | 1048.5 |
| 20260509041200 | 57 | 182 | 0.0 | 2.0 | 0.00 | 0.00 | 0.00 | 90 | 1048.5 |
| 20260509041149 | 57 | 182 | 0.0 | 2.0 | 0.00 | 0.00 | 0.00 | 90 | 1048.5 |
| 20260509041142 | 57 | 181 | 1.0 | 2.0 | 0.00 | 0.00 | 0.00 | 90 | 1048.6 |
| 20260509041130 | 57 | 182 | 1.0 | 2.0 | 0.00 | 0.00 | 0.00 | 90 | 1048.6 |
| 20260509041120 | 57 | 181 | 1.0 | 2.0 | 0.00 | 0.00 | 0.00 | 90 | 1048.6 |
| 20260509040854 | 57 | 181 | 1.0 | 3.0 | 0.00 | 0.00 | 0.00 | 90 | 1048.6 |
| 20260509040846 | 57 | 182 | 1.0 | 3.0 | 0.00 | 0.00 | 0.00 | 90 | 1048.6 |
| 20260509040838 | 57 | 182 | 1.0 | 3.0 | 0.00 | 0.00 | 0.00 | 90 | 1048.6 |
| 20260509040823 | 57 | 182 | 1.0 | 3.0 | 0.00 | 0.00 | 0.00 | 90 | 1048.6 |
| 20260509040812 | 57 | 182 | 1.0 | 3.0 | 0.00 | 0.00 | 0.00 | 90 | 1048.6 |
| 20260509040542 | 57 | 181 | 1.0 | 3.0 | 0.00 | 0.00 | 0.00 | 90 | 1048.6 |
| 20260509040320 | 57 | 182 | 2.0 | 3.0 | 0.00 | 0.00 | 0.00 | 90 | 1048.6 |
| 20260509040307 | 57 | 182 | 2.0 | 3.0 | 0.00 | 0.00 | 0.00 | 90 | 1048.6 |
| 20260509040257 | 57 | 181 | 2.0 | 3.0 | 0.00 | 0.00 | 0.00 | 90 | 1048.6 |
| 20260509040033 | 57 | 181 | 2.0 | 3.0 | 0.00 | 0.00 | 0.00 | 90 | 1048.6 |
| 20260509040026 | 57 | 183 | 2.0 | 3.0 | 0.00 | 0.00 | 0.00 | 90 | 1048.6 |
| 20260509035753 | 57 | 181 | 2.0 | 3.0 | 0.00 | 0.00 | 0.00 | 90 | 1048.6 |
| 20260509035742 | 57 | 181 | 2.0 | 3.0 | 0.00 | 0.00 | 0.00 | 90 | 1048.6 |
| 20260509034931 | 57 | 182 | 2.0 | 3.0 | 0.00 | 0.00 | 0.00 | 90 | 1048.7 |
| 20260509034832 | 57 | 182 | 2.0 | 3.0 | 0.00 | 0.00 | 0.00 | 90 | 1048.7 |
| 20260509034734 | 57 | 182 | 2.0 | 3.0 | 0.00 | 0.00 | 0.00 | 90 | 1048.7 |
| 20260509034703 | 57 | 182 | 2.0 | 3.0 | 0.00 | 0.00 | 0.00 | 90 | 1048.6 |
| 20260509034652 | 57 | 181 | 2.0 | 3.0 | 0.00 | 0.00 | 0.00 | 90 | 1048.6 |
| 20260509034410 | 57 | 182 | 2.0 | 3.0 | 0.00 | 0.00 | 0.00 | 90 | 1048.6 |
| 20260509034354 | 57 | 182 | 2.0 | 3.0 | 0.00 | 0.00 | 0.00 | 90 | 1048.6 |
| 20260509034032 | 57 | 182 | 2.0 | 3.0 | 0.00 | 0.00 | 0.00 | 90 | 1048.6 |
| 20260509034012 | 57 | 182 | 2.0 | 3.0 | 0.00 | 0.00 | 0.00 | 90 | 1048.6 |
| 20260509034003 | 57 | 181 | 2.0 | 3.0 | 0.00 | 0.00 | 0.00 | 90 | 1048.6 |
| 20260509033948 | 57 | 181 | 2.0 | 3.0 | 0.00 | 0.00 | 0.00 | 90 | 1048.6 |
| 20260509033634 | 57 | 182 | 2.0 | 3.0 | 0.00 | 0.00 | 0.00 | 90 | 1048.7 |
| 20260509033531 | 57 | 181 | 2.0 | 3.0 | 0.00 | 0.00 | 0.00 | 90 | 1048.7 |
| 20260509033431 | 57 | 182 | 2.0 | 3.0 | 0.00 | 0.00 | 0.00 | 90 | 1048.7 |
| 20260509033332 | 56 | 183 | 2.0 | 4.0 | 0.00 | 0.00 | 0.00 | 90 | 1048.7 |
| 20260509033235 | 56 | 182 | 2.0 | 4.0 | 0.00 | 0.00 | 0.00 | 90 | 1048.7 |
| 20260509033131 | 56 | 182 | 2.0 | 4.0 | 0.00 | 0.00 | 0.00 | 90 | 1048.7 |
| 20260509033032 | 56 | 181 | 2.0 | 4.0 | 0.00 | 0.00 | 0.00 | 90 | 1048.7 |
| 20260509032931 | 56 | 182 | 2.0 | 4.0 | 0.00 | 0.00 | 0.00 | 90 | 1048.6 |
| 20260509032830 | 56 | 182 | 2.0 | 4.0 | 0.00 | 0.00 | 0.00 | 90 | 1048.7 |
| 20260509032729 | 56 | 181 | 2.0 | 4.0 | 0.00 | 0.00 | 0.00 | 90 | 1048.7 |
| 20260509032700 | 56 | 182 | 3.0 | 4.0 | 0.00 | 0.00 | 0.00 | 90 | 1048.7 |
| 20260509032653 | 56 | 181 | 3.0 | 4.0 | 0.00 | 0.00 | 0.00 | 90 | 1048.7 |
| 20260509032325 | 56 | 181 | 2.0 | 4.0 | 0.00 | 0.00 | 0.00 | 90 | 1048.7 |
| 20260509032225 | 56 | 181 | 2.0 | 4.0 | 0.00 | 0.00 | 0.00 | 90 | 1048.8 |
| 20260509032126 | 56 | 181 | 1.0 | 4.0 | 0.00 | 0.00 | 0.00 | 90 | 1048.8 |
| 20260509032027 | 56 | 182 | 1.0 | 3.0 | 0.00 | 0.00 | 0.00 | 90 | 1048.8 |
| 20260509032009 | 56 | 182 | 1.0 | 3.0 | 0.00 | 0.01 | 0.00 | 90 | 1049.0 |
| 20260509031952 | 56 | 181 | 1.0 | 3.0 | 0.00 | 0.01 | 0.00 | 90 | 1049.0 |
| 20260509031718 | 56 | 182 | 1.0 | 2.0 | 0.00 | 0.01 | 0.00 | 90 | 1048.8 |
| 20260509031629 | 56 | 182 | 1.0 | 3.0 | 0.00 | 0.01 | 0.00 | 90 | 1048.8 |
| 20260509031622 | 56 | 181 | 1.0 | 3.0 | 0.00 | 0.01 | 0.00 | 90 | 1048.8 |
| 20260509031609 | 56 | 181 | 1.0 | 3.0 | 0.00 | 0.01 | 0.00 | 90 | 1048.7 |
| 20260509031600 | 56 | 182 | 1.0 | 3.0 | 0.00 | 0.01 | 0.00 | 90 | 1048.7 |
| 20260509031334 | 56 | 181 | 2.0 | 3.0 | 0.00 | 0.01 | 0.00 | 90 | 1048.8 |
| 20260509031011 | 56 | 181 | 2.0 | 3.0 | 0.00 | 0.01 | 0.00 | 90 | 1048.8 |
| 20260509030912 | 56 | 182 | 2.0 | 3.0 | 0.00 | 0.01 | 0.00 | 90 | 1048.8 |
| 20260509030814 | 56 | 182 | 2.0 | 4.0 | 0.00 | 0.01 | 0.00 | 90 | 1049.0 |
| 20260509030748 | 56 | 182 | 2.0 | 4.0 | 0.00 | 0.01 | 0.00 | 90 | 1049.0 |
| 20260509030734 | 56 | 182 | 2.0 | 4.0 | 0.00 | 0.01 | 0.00 | 90 | 1049.0 |
| 20260509030727 | 56 | 181 | 2.0 | 4.0 | 0.00 | 0.01 | 0.00 | 90 | 1049.0 |
| 20260509030717 | 56 | 182 | 2.0 | 4.0 | 0.00 | 0.01 | 0.00 | 90 | 1049.0 |
| 20260509030442 | 56 | 182 | 2.0 | 4.0 | 0.00 | 0.01 | 0.00 | 90 | 1049.0 |
| 20260509030218 | 56 | 182 | 2.0 | 4.0 | 0.00 | 0.01 | 0.00 | 90 | 1049.0 |
| 20260509030202 | 56 | 181 | 2.0 | 4.0 | 0.00 | 0.01 | 0.00 | 90 | 1048.8 |
| 20260509030154 | 56 | 182 | 2.0 | 4.0 | 0.00 | 0.01 | 0.00 | 90 | 1049.0 |
| 20260509030144 | 56 | 182 | 2.0 | 3.0 | 0.00 | 0.01 | 0.00 | 90 | 1049.0 |
| 20260509025604 | 56 | 181 | 2.0 | 3.0 | 0.00 | 0.01 | 0.00 | 90 | 1049.0 |
| 20260509025503 | 56 | 182 | 2.0 | 3.0 | 0.00 | 0.01 | 0.00 | 90 | 1049.0 |
| 20260509025404 | 56 | 182 | 2.0 | 4.0 | 0.00 | 0.01 | 0.00 | 90 | 1049.0 |
| 20260509025306 | 56 | 182 | 2.0 | 4.0 | 0.00 | 0.01 | 0.00 | 90 | 1049.0 |
| 20260509025203 | 56 | 182 | 2.0 | 4.0 | 0.00 | 0.01 | 0.00 | 90 | 1049.0 |
| 20260509025107 | 56 | 182 | 2.0 | 4.0 | 0.00 | 0.01 | 0.00 | 90 | 1049.0 |
| 20260509025003 | 56 | 181 | 2.0 | 4.0 | 0.00 | 0.01 | 0.00 | 90 | 1049.0 |
| 20260509024903 | 56 | 182 | 2.0 | 4.0 | 0.00 | 0.01 | 0.00 | 90 | 1049.0 |
| 20260509024803 | 56 | 181 | 3.0 | 4.0 | 0.00 | 0.01 | 0.00 | 90 | 1049.0 |
| 20260509024739 | 56 | 182 | 3.0 | 4.0 | 0.00 | 0.01 | 0.00 | 90 | 1048.8 |
| 20260509024726 | 56 | 181 | 3.0 | 4.0 | 0.00 | 0.01 | 0.00 | 90 | 1049.0 |
| 20260509024405 | 56 | 182 | 3.0 | 4.0 | 0.00 | 0.01 | 0.00 | 90 | 1048.8 |
| 20260509024345 | 56 | 182 | 3.0 | 4.0 | 0.00 | 0.01 | 0.00 | 90 | 1048.8 |
| 20260509024335 | 56 | 182 | 3.0 | 4.0 | 0.00 | 0.01 | 0.00 | 90 | 1048.8 |
| 20260509024328 | 56 | 181 | 3.0 | 4.0 | 0.00 | 0.01 | 0.00 | 90 | 1048.8 |
| 20260509024003 | 56 | 182 | 3.0 | 4.0 | 0.00 | 0.01 | 0.00 | 90 | 1048.8 |
| 20260509023903 | 56 | 182 | 3.0 | 4.0 | 0.00 | 0.01 | 0.00 | 90 | 1048.8 |
| 20260509023843 | 56 | 182 | 2.0 | 4.0 | 0.00 | 0.01 | 0.00 | 90 | 1048.8 |
| 20260509023825 | 56 | 182 | 2.0 | 4.0 | 0.00 | 0.01 | 0.00 | 90 | 1048.8 |
| 20260509023504 | 56 | 182 | 2.0 | 4.0 | 0.00 | 0.01 | 0.00 | 90 | 1048.7 |
| 20260509023411 | 56 | 182 | 2.0 | 4.0 | 0.00 | 0.01 | 0.00 | 90 | 1048.8 |
| 20260509023358 | 56 | 181 | 2.0 | 4.0 | 0.00 | 0.01 | 0.00 | 90 | 1048.7 |
| 20260509023348 | 56 | 181 | 2.0 | 4.0 | 0.00 | 0.01 | 0.00 | 90 | 1048.8 |
| 20260509023336 | 56 | 182 | 2.0 | 4.0 | 0.00 | 0.01 | 0.00 | 90 | 1048.8 |
| 20260509023327 | 56 | 181 | 2.0 | 4.0 | 0.00 | 0.01 | 0.00 | 90 | 1048.8 |
| 20260509023056 | 56 | 182 | 2.0 | 3.0 | 0.00 | 0.01 | 0.00 | 90 | 1048.8 |
| 20260509023048 | 56 | 182 | 2.0 | 3.0 | 0.00 | 0.01 | 0.00 | 90 | 1048.8 |
| 20260509023036 | 56 | 181 | 2.0 | 3.0 | 0.00 | 0.01 | 0.00 | 90 | 1049.0 |
| 20260509023027 | 56 | 182 | 2.0 | 3.0 | 0.00 | 0.01 | 0.00 | 90 | 1049.0 |
| 20260509023016 | 56 | 182 | 2.0 | 3.0 | 0.00 | 0.01 | 0.00 | 90 | 1049.0 |
| 20260509023004 | 56 | 182 | 2.0 | 3.0 | 0.00 | 0.01 | 0.00 | 90 | 1049.0 |
| 20260509022957 | 56 | 182 | 2.0 | 3.0 | 0.00 | 0.01 | 0.00 | 90 | 1049.0 |
| 20260509022943 | 56 | 181 | 2.0 | 3.0 | 0.00 | 0.01 | 0.00 | 90 | 1049.0 |
| 20260509022716 | 56 | 182 | 2.0 | 3.0 | 0.00 | 0.01 | 0.00 | 90 | 1049.0 |
| 20260509022228 | 56 | 181 | 2.0 | 4.0 | 0.00 | 0.01 | 0.00 | 90 | 1049.1 |
| 20260509021704 | 56 | 181 | 2.0 | 4.0 | 0.00 | 0.01 | 0.00 | 90 | 1049.1 |
| 20260509021604 | 56 | 181 | 2.0 | 4.0 | 0.00 | 0.01 | 0.00 | 90 | 1049.0 |
| 20260509021539 | 56 | 181 | 2.0 | 4.0 | 0.00 | 0.01 | 0.00 | 90 | 1049.1 |
| 20260509021532 | 56 | 182 | 2.0 | 4.0 | 0.00 | 0.01 | 0.00 | 90 | 1049.0 |
| 20260509021204 | 56 | 181 | 2.0 | 4.0 | 0.00 | 0.01 | 0.00 | 90 | 1049.1 |
| 20260509021105 | 56 | 182 | 2.0 | 4.0 | 0.00 | 0.01 | 0.00 | 90 | 1049.0 |
| 20260509020957 | 56 | 181 | 2.0 | 4.0 | 0.00 | 0.01 | 0.00 | 90 | 1049.0 |
| 20260509020858 | 56 | 181 | 2.0 | 4.0 | 0.00 | 0.01 | 0.00 | 90 | 1049.0 |
| 20260509020736 | 56 | 182 | 2.0 | 4.0 | 0.00 | 0.01 | 0.00 | 90 | 1049.0 |
| 20260509020729 | 56 | 181 | 2.0 | 4.0 | 0.00 | 0.01 | 0.00 | 90 | 1049.0 |
| 20260509020722 | 56 | 182 | 2.0 | 4.0 | 0.00 | 0.01 | 0.00 | 90 | 1049.1 |
| 20260509020438 | 56 | 182 | 2.0 | 4.0 | 0.00 | 0.01 | 0.00 | 90 | 1049.1 |
| 20260509020428 | 56 | 181 | 2.0 | 4.0 | 0.00 | 0.01 | 0.00 | 90 | 1049.1 |
| 20260509020418 | 56 | 182 | 2.0 | 4.0 | 0.00 | 0.01 | 0.00 | 90 | 1049.1 |
| 20260509020051 | 56 | 182 | 2.0 | 4.0 | 0.00 | 0.01 | 0.00 | 90 | 1049.1 |
| 20260509015959 | 56 | 182 | 2.0 | 4.0 | 0.00 | 0.01 | 0.00 | 90 | 1049.1 |
| 20260509015947 | 56 | 181 | 2.0 | 3.0 | 0.00 | 0.01 | 0.00 | 90 | 1049.1 |
| 20260509015935 | 56 | 182 | 1.0 | 3.0 | 0.00 | 0.01 | 0.00 | 90 | 1049.1 |
| 20260509015926 | 56 | 182 | 1.0 | 3.0 | 0.00 | 0.01 | 0.00 | 90 | 1049.2 |
| 20260509015916 | 56 | 182 | 1.0 | 3.0 | 0.00 | 0.01 | 0.00 | 90 | 1049.2 |
| 20260509015647 | 56 | 181 | 2.0 | 3.0 | 0.00 | 0.01 | 0.00 | 90 | 1049.2 |
| 20260509015639 | 56 | 182 | 2.0 | 4.0 | 0.00 | 0.01 | 0.00 | 90 | 1049.2 |
| 20260509015406 | 56 | 181 | 2.0 | 4.0 | 0.00 | 0.01 | 0.00 | 90 | 1049.2 |
| 20260509015046 | 56 | 182 | 2.0 | 4.0 | 0.00 | 0.01 | 0.00 | 90 | 1049.3 |
| 20260509014946 | 56 | 182 | 2.0 | 4.0 | 0.00 | 0.01 | 0.00 | 90 | 1049.3 |
| 20260509014845 | 56 | 181 | 3.0 | 4.0 | 0.00 | 0.01 | 0.00 | 90 | 1049.4 |
| 20260509014745 | 56 | 182 | 3.0 | 4.0 | 0.00 | 0.01 | 0.00 | 90 | 1049.4 |
| 20260509014732 | 56 | 181 | 3.0 | 4.0 | 0.00 | 0.01 | 0.00 | 90 | 1049.3 |
| 20260509014645 | 56 | 182 | 3.0 | 4.0 | 0.00 | 0.01 | 0.00 | 90 | 1049.3 |
| 20260509014546 | 56 | 181 | 3.0 | 4.0 | 0.00 | 0.01 | 0.00 | 90 | 1049.4 |
| 20260509014445 | 56 | 182 | 3.0 | 4.0 | 0.00 | 0.01 | 0.00 | 90 | 1049.4 |
| 20260509014434 | 56 | 182 | 3.0 | 4.0 | 0.00 | 0.01 | 0.00 | 90 | 1049.4 |
| 20260509014415 | 56 | 182 | 3.0 | 4.0 | 0.00 | 0.01 | 0.00 | 90 | 1049.4 |
| 20260509014406 | 56 | 181 | 2.0 | 4.0 | 0.00 | 0.01 | 0.00 | 90 | 1049.4 |
| 20260509014355 | 56 | 182 | 2.0 | 4.0 | 0.00 | 0.01 | 0.00 | 90 | 1049.3 |
| 20260509014344 | 56 | 182 | 2.0 | 4.0 | 0.00 | 0.01 | 0.00 | 90 | 1049.4 |
| 20260509014120 | 56 | 181 | 2.0 | 4.0 | 0.00 | 0.01 | 0.00 | 90 | 1049.4 |
| 20260509013540 | 56 | 181 | 2.0 | 3.0 | 0.00 | 0.01 | 0.00 | 90 | 1049.4 |
| 20260509013516 | 56 | 182 | 2.0 | 3.0 | 0.00 | 0.01 | 0.00 | 90 | 1049.5 |
| 20260509013510 | 56 | 182 | 2.0 | 3.0 | 0.00 | 0.01 | 0.00 | 90 | 1049.5 |
| 20260509013232 | 56 | 181 | 2.0 | 3.0 | 0.00 | 0.01 | 0.00 | 90 | 1049.5 |
| 20260509013139 | 56 | 182 | 2.0 | 3.0 | 0.00 | 0.01 | 0.00 | 90 | 1049.5 |
| 20260509013110 | 56 | 182 | 2.0 | 3.0 | 0.00 | 0.01 | 0.00 | 90 | 1049.5 |
| 20260509013103 | 56 | 181 | 2.0 | 3.0 | 0.00 | 0.01 | 0.00 | 90 | 1049.5 |
| 20260509012806 | 56 | 182 | 2.0 | 3.0 | 0.00 | 0.01 | 0.00 | 90 | 1049.6 |
| 20260509012757 | 56 | 181 | 2.0 | 3.0 | 0.00 | 0.01 | 0.00 | 90 | 1049.6 |
| 20260509012450 | 56 | 182 | 2.0 | 3.0 | 0.00 | 0.01 | 0.00 | 90 | 1049.5 |
| 20260509012443 | 56 | 182 | 2.0 | 3.0 | 0.00 | 0.01 | 0.00 | 90 | 1049.5 |
| 20260509012422 | 56 | 182 | 2.0 | 4.0 | 0.00 | 0.01 | 0.00 | 90 | 1049.6 |
| 20260509012411 | 56 | 182 | 2.0 | 4.0 | 0.00 | 0.01 | 0.00 | 90 | 1049.6 |
| 20260509011831 | 56 | 181 | 2.0 | 4.0 | 0.00 | 0.01 | 0.00 | 90 | 1049.7 |
| 20260509011738 | 56 | 182 | 2.0 | 4.0 | 0.00 | 0.01 | 0.00 | 90 | 1049.7 |
| 20260509011634 | 56 | 181 | 2.0 | 4.0 | 0.00 | 0.01 | 0.00 | 90 | 1049.7 |
| 20260509011531 | 56 | 182 | 2.0 | 4.0 | 0.00 | 0.01 | 0.00 | 90 | 1049.7 |
| 20260509011508 | 56 | 182 | 2.0 | 4.0 | 0.00 | 0.01 | 0.00 | 90 | 1049.7 |
| 20260509011501 | 56 | 181 | 2.0 | 4.0 | 0.00 | 0.01 | 0.00 | 90 | 1049.7 |
| 20260509011440 | 56 | 182 | 2.0 | 4.0 | 0.00 | 0.01 | 0.00 | 90 | 1049.7 |
| 20260509011429 | 56 | 182 | 2.0 | 4.0 | 0.00 | 0.01 | 0.00 | 90 | 1049.7 |
| 20260509011203 | 56 | 181 | 2.0 | 3.0 | 0.00 | 0.01 | 0.00 | 90 | 1049.7 |
| 20260509011153 | 56 | 182 | 2.0 | 3.0 | 0.00 | 0.01 | 0.00 | 90 | 1049.8 |
| 20260509010923 | 56 | 182 | 2.0 | 3.0 | 0.00 | 0.01 | 0.00 | 90 | 1049.7 |
| 20260509010909 | 56 | 182 | 2.0 | 3.0 | 0.00 | 0.01 | 0.00 | 90 | 1049.7 |
| 20260509010332 | 55 | 182 | 1.0 | 3.0 | 0.00 | 0.01 | 0.00 | 90 | 1049.7 |
| 20260509010234 | 55 | 182 | 2.0 | 3.0 | 0.00 | 0.01 | 0.00 | 90 | 1049.8 |
| 20260509010201 | 55 | 182 | 2.0 | 3.0 | 0.00 | 0.01 | 0.00 | 90 | 1049.8 |
| 20260509010153 | 55 | 182 | 2.0 | 3.0 | 0.00 | 0.01 | 0.00 | 90 | 1049.8 |
| 20260509005832 | 55 | 182 | 2.0 | 4.0 | 0.00 | 0.01 | 0.00 | 90 | 1049.7 |
| 20260509005752 | 55 | 182 | 2.0 | 4.0 | 0.00 | 0.01 | 0.00 | 90 | 1049.8 |
| 20260509005741 | 55 | 181 | 2.0 | 4.0 | 0.00 | 0.01 | 0.00 | 90 | 1049.7 |
| 20260509005729 | 55 | 182 | 2.0 | 4.0 | 0.00 | 0.01 | 0.00 | 90 | 1049.8 |
| 20260509005501 | 55 | 182 | 2.0 | 4.0 | 0.00 | 0.01 | 0.00 | 90 | 1049.8 |
| 20260509005234 | 55 | 182 | 2.0 | 4.0 | 0.00 | 0.01 | 0.00 | 90 | 1049.8 |
| 20260509005132 | 55 | 182 | 2.0 | 4.0 | 0.00 | 0.01 | 0.00 | 90 | 1049.9 |
| 20260509005033 | 55 | 182 | 2.0 | 4.0 | 0.00 | 0.01 | 0.00 | 90 | 1049.9 |
| 20260509004931 | 55 | 182 | 2.0 | 4.0 | 0.00 | 0.01 | 0.00 | 90 | 1049.9 |
| 20260509004832 | 55 | 181 | 2.0 | 4.0 | 0.00 | 0.01 | 0.00 | 90 | 1049.9 |
| 20260509004734 | 55 | 181 | 2.0 | 3.0 | 0.00 | 0.01 | 0.00 | 90 | 1049.9 |
| 20260509004635 | 55 | 181 | 2.0 | 3.0 | 0.00 | 0.01 | 0.00 | 90 | 1049.9 |
| 20260509004601 | 55 | 182 | 2.0 | 3.0 | 0.00 | 0.01 | 0.00 | 90 | 1050.0 |
| 20260509004554 | 55 | 181 | 2.0 | 3.0 | 0.00 | 0.01 | 0.00 | 90 | 1050.0 |
| 20260509004305 | 55 | 182 | 2.0 | 3.0 | 0.00 | 0.01 | 0.00 | 90 | 1049.9 |
| 20260509004249 | 55 | 182 | 2.0 | 3.0 | 0.00 | 0.01 | 0.00 | 90 | 1050.0 |
| 20260509003929 | 55 | 182 | 2.0 | 3.0 | 0.00 | 0.01 | 0.00 | 90 | 1049.9 |
| 20260509003827 | 55 | 182 | 2.0 | 3.0 | 0.00 | 0.01 | 0.00 | 90 | 1049.9 |
| 20260509003803 | 55 | 182 | 2.0 | 3.0 | 0.00 | 0.01 | 0.00 | 90 | 1049.9 |
| 20260509003756 | 55 | 181 | 2.0 | 3.0 | 0.00 | 0.01 | 0.00 | 90 | 1049.9 |
| 20260509003748 | 55 | 182 | 2.0 | 3.0 | 0.00 | 0.01 | 0.00 | 90 | 1049.9 |
| 20260509003423 | 55 | 182 | 2.0 | 3.0 | 0.00 | 0.01 | 0.00 | 90 | 1049.9 |
| 20260509003321 | 55 | 182 | 2.0 | 3.0 | 0.00 | 0.01 | 0.00 | 90 | 1049.9 |
| 20260509003221 | 55 | 181 | 2.0 | 3.0 | 0.00 | 0.01 | 0.00 | 90 | 1049.9 |
| 20260509003121 | 55 | 182 | 2.0 | 3.0 | 0.00 | 0.01 | 0.00 | 90 | 1049.9 |
| 20260509003022 | 55 | 182 | 2.0 | 3.0 | 0.00 | 0.01 | 0.00 | 90 | 1049.9 |
| 20260509002915 | 55 | 182 | 2.0 | 3.0 | 0.00 | 0.01 | 0.00 | 90 | 1050.0 |
| 20260509002815 | 55 | 181 | 2.0 | 3.0 | 0.00 | 0.01 | 0.00 | 90 | 1050.0 |
| 20260509002748 | 55 | 182 | 2.0 | 4.0 | 0.00 | 0.01 | 0.00 | 90 | 1050.0 |
| 20260509002741 | 55 | 182 | 2.0 | 4.0 | 0.00 | 0.01 | 0.00 | 90 | 1050.0 |
| 20260509002410 | 55 | 181 | 2.0 | 4.0 | 0.00 | 0.01 | 0.00 | 90 | 1050.0 |
| 20260509002308 | 55 | 182 | 2.0 | 4.0 | 0.00 | 0.01 | 0.00 | 90 | 1050.0 |
| 20260509002233 | 55 | 181 | 2.0 | 4.0 | 0.00 | 0.01 | 0.00 | 90 | 1050.0 |
| 20260509002207 | 55 | 182 | 2.0 | 4.0 | 0.00 | 0.01 | 0.00 | 90 | 1050.0 |
| 20260509002104 | 55 | 182 | 2.0 | 4.0 | 0.00 | 0.01 | 0.00 | 90 | 1050.0 |
| 20260509002003 | 55 | 182 | 2.0 | 4.0 | 0.00 | 0.01 | 0.00 | 90 | 1050.0 |
| 20260509001857 | 55 | 182 | 2.0 | 4.0 | 0.00 | 0.01 | 0.00 | 90 | 1050.0 |
| 20260509001757 | 55 | 181 | 2.0 | 4.0 | 0.00 | 0.01 | 0.00 | 90 | 1050.0 |
| 20260509001732 | 55 | 182 | 2.0 | 3.0 | 0.00 | 0.01 | 0.00 | 90 | 1050.0 |
| 20260509001725 | 55 | 182 | 2.0 | 3.0 | 0.00 | 0.01 | 0.00 | 90 | 1050.0 |
| 20260509001715 | 55 | 182 | 2.0 | 3.0 | 0.00 | 0.01 | 0.00 | 90 | 1050.0 |
| 20260509001349 | 55 | 181 | 1.0 | 3.0 | 0.00 | 0.01 | 0.00 | 90 | 1050.0 |
| 20260509001328 | 55 | 181 | 1.0 | 3.0 | 0.00 | 0.01 | 0.00 | 90 | 1050.1 |
| 20260509001320 | 55 | 182 | 1.0 | 3.0 | 0.00 | 0.01 | 0.00 | 90 | 1050.1 |
| 20260509001311 | 55 | 182 | 1.0 | 3.0 | 0.00 | 0.01 | 0.00 | 90 | 1050.1 |
| 20260509000947 | 55 | 182 | 1.0 | 3.0 | 0.00 | 0.01 | 0.00 | 90 | 1050.1 |
| 20260509000843 | 55 | 181 | 1.0 | 3.0 | 0.00 | 0.01 | 0.00 | 90 | 1050.1 |
| 20260509000757 | 55 | 182 | 1.0 | 3.0 | 0.00 | 0.01 | 0.00 | 90 | 1050.2 |
| 20260509000748 | 55 | 182 | 2.0 | 3.0 | 0.00 | 0.01 | 0.00 | 90 | 1050.2 |
| 20260509000741 | 55 | 181 | 2.0 | 3.0 | 0.00 | 0.01 | 0.00 | 90 | 1050.2 |
| 20260509000727 | 55 | 182 | 2.0 | 3.0 | 0.00 | 0.01 | 0.00 | 90 | 1050.1 |
| 20260509000503 | 55 | 182 | 2.0 | 4.0 | 0.00 | 0.01 | 0.00 | 90 | 1050.2 |
| 20260509000449 | 55 | 181 | 2.0 | 4.0 | 0.00 | 0.01 | 0.00 | 90 | 1050.1 |
| 20260509000143 | 55 | 181 | 2.0 | 4.0 | 0.00 | 0.01 | 0.00 | 90 | 1050.2 |
| 20260509000043 | 55 | 182 | 2.0 | 4.0 | 0.00 | 0.01 | 0.00 | 91 | 1050.2 |
| 20260509000017 | 54 | 182 | 2.0 | 4.0 | 0.00 | 0.01 | 0.00 | 91 | 1050.1 |
| 20260509000005 | 54 | 182 | 2.0 | 4.0 | 0.00 | 0.01 | 0.00 | 91 | 1050.2 |
| 20260508235952 | 54 | 181 | 2.0 | 4.0 | 0.00 | 0.01 | 0.00 | 91 | 1050.2 |
| 20260508235943 | 54 | 182 | 2.0 | 4.0 | 0.00 | 0.01 | 0.00 | 91 | 1050.2 |
| 20260508235936 | 54 | 182 | 2.0 | 4.0 | 0.00 | 0.01 | 0.00 | 91 | 1050.2 |
| 20260508235927 | 54 | 181 | 2.0 | 4.0 | 0.00 | 0.01 | 0.00 | 91 | 1050.1 |
| 20260508235920 | 54 | 182 | 2.0 | 3.0 | 0.00 | 0.01 | 0.00 | 91 | 1050.2 |
| 20260508235648 | 54 | 182 | 2.0 | 3.0 | 0.00 | 0.01 | 0.00 | 90 | 1050.2 |
| 20260508235201 | 54 | 181 | 2.0 | 4.0 | 0.00 | 0.01 | 0.00 | 90 | 1050.2 |
| 20260508234837 | 54 | 181 | 2.0 | 4.0 | 0.00 | 0.01 | 0.00 | 90 | 1050.2 |
| 20260508234750 | 54 | 182 | 2.0 | 4.0 | 0.00 | 0.01 | 0.00 | 90 | 1050.2 |
| 20260508234740 | 54 | 183 | 2.0 | 4.0 | 0.00 | 0.01 | 0.00 | 90 | 1050.2 |
| 20260508234638 | 54 | 182 | 2.0 | 4.0 | 0.00 | 0.01 | 0.00 | 90 | 1050.2 |
| 20260508234539 | 54 | 181 | 2.0 | 4.0 | 0.00 | 0.01 | 0.00 | 91 | 1050.2 |
| 20260508234435 | 54 | 181 | 2.0 | 4.0 | 0.00 | 0.01 | 0.00 | 91 | 1050.2 |
| 20260508234331 | 54 | 182 | 2.0 | 4.0 | 0.00 | 0.01 | 0.00 | 91 | 1050.1 |
| 20260508234229 | 54 | 182 | 2.0 | 4.0 | 0.00 | 0.01 | 0.00 | 91 | 1050.1 |
| 20260508234148 | 54 | 181 | 3.0 | 4.0 | 0.00 | 0.01 | 0.00 | 91 | 1050.1 |
| 20260508234140 | 54 | 182 | 3.0 | 4.0 | 0.00 | 0.01 | 0.00 | 91 | 1050.1 |
| 20260508234128 | 54 | 182 | 3.0 | 4.0 | 0.00 | 0.01 | 0.00 | 91 | 1050.1 |
| 20260508234119 | 54 | 181 | 3.0 | 4.0 | 0.00 | 0.01 | 0.00 | 91 | 1050.2 |
| 20260508233851 | 54 | 182 | 3.0 | 4.0 | 0.00 | 0.01 | 0.00 | 91 | 1050.2 |
| 20260508233533 | 54 | 182 | 3.0 | 4.0 | 0.00 | 0.01 | 0.00 | 91 | 1050.2 |
| 20260508233506 | 54 | 182 | 3.0 | 4.0 | 0.00 | 0.01 | 0.00 | 91 | 1050.2 |
| 20260508233459 | 54 | 182 | 3.0 | 4.0 | 0.00 | 0.01 | 0.00 | 91 | 1050.2 |
| 20260508233435 | 54 | 182 | 3.0 | 4.0 | 0.00 | 0.01 | 0.00 | 91 | 1050.2 |
| 20260508233209 | 54 | 181 | 3.0 | 4.0 | 0.00 | 0.01 | 0.00 | 91 | 1050.2 |
| 20260508233201 | 54 | 182 | 2.0 | 4.0 | 0.00 | 0.01 | 0.00 | 91 | 1050.2 |
| 20260508233153 | 54 | 182 | 2.0 | 4.0 | 0.00 | 0.01 | 0.00 | 91 | 1050.2 |
| 20260508233139 | 54 | 181 | 2.0 | 4.0 | 0.00 | 0.01 | 0.00 | 91 | 1050.2 |
| 20260508232911 | 54 | 182 | 2.0 | 4.0 | 0.00 | 0.01 | 0.00 | 91 | 1050.2 |
| 20260508232338 | 54 | 182 | 2.0 | 4.0 | 0.00 | 0.01 | 0.00 | 91 | 1050.2 |
| 20260508232322 | 54 | 182 | 2.0 | 4.0 | 0.00 | 0.01 | 0.00 | 91 | 1050.2 |
| 20260508232308 | 54 | 181 | 2.0 | 4.0 | 0.00 | 0.01 | 0.00 | 91 | 1050.2 |
| 20260508232256 | 53 | 182 | 2.0 | 4.0 | 0.00 | 0.01 | 0.00 | 91 | 1050.2 |
| 20260508232250 | 53 | 183 | 2.0 | 4.0 | 0.00 | 0.01 | 0.00 | 91 | 1050.2 |
| 20260508232018 | 53 | 181 | 2.0 | 4.0 | 0.00 | 0.01 | 0.00 | 91 | 1050.2 |
| 20260508231751 | 53 | 182 | 2.0 | 4.0 | 0.00 | 0.01 | 0.00 | 91 | 1050.2 |
| 20260508231730 | 53 | 182 | 2.0 | 4.0 | 0.00 | 0.01 | 0.00 | 91 | 1050.2 |
| 20260508231443 | 53 | 181 | 3.0 | 4.0 | 0.00 | 0.01 | 0.00 | 91 | 1050.2 |
| 20260508231431 | 53 | 181 | 3.0 | 4.0 | 0.00 | 0.01 | 0.00 | 91 | 1050.2 |
| 20260508231407 | 53 | 182 | 3.0 | 4.0 | 0.00 | 0.01 | 0.00 | 91 | 1050.2 |
| 20260508231358 | 53 | 181 | 2.0 | 4.0 | 0.00 | 0.01 | 0.00 | 91 | 1050.2 |
| 20260508231129 | 53 | 181 | 2.0 | 4.0 | 0.00 | 0.01 | 0.00 | 91 | 1050.2 |
| 20260508231118 | 53 | 182 | 2.0 | 4.0 | 0.00 | 0.01 | 0.00 | 91 | 1050.2 |
| 20260508230851 | 53 | 181 | 2.0 | 4.0 | 0.00 | 0.01 | 0.00 | 91 | 1050.2 |
| 20260508230553 | 53 | 181 | 2.0 | 4.0 | 0.00 | 0.01 | 0.00 | 91 | 1050.2 |
| 20260508230544 | 53 | 182 | 2.0 | 4.0 | 0.00 | 0.01 | 0.00 | 91 | 1050.2 |
| 20260508230308 | 53 | 181 | 2.0 | 4.0 | 0.00 | 0.01 | 0.00 | 91 | 1050.2 |
| 20260508230301 | 53 | 182 | 2.0 | 4.0 | 0.00 | 0.01 | 0.00 | 91 | 1050.2 |
| 20260508230254 | 53 | 182 | 2.0 | 4.0 | 0.00 | 0.01 | 0.00 | 91 | 1050.3 |
| 20260508225923 | 53 | 182 | 2.0 | 4.0 | 0.00 | 0.01 | 0.00 | 91 | 1050.3 |
| 20260508225823 | 53 | 182 | 3.0 | 4.0 | 0.00 | 0.01 | 0.00 | 91 | 1050.3 |
| 20260508225756 | 53 | 182 | 3.0 | 4.0 | 0.00 | 0.01 | 0.00 | 91 | 1050.3 |
| 20260508225747 | 53 | 181 | 3.0 | 4.0 | 0.00 | 0.01 | 0.00 | 91 | 1050.3 |
| 20260508225423 | 53 | 182 | 3.0 | 4.0 | 0.00 | 0.01 | 0.00 | 91 | 1050.2 |
| 20260508225342 | 53 | 182 | 3.0 | 4.0 | 0.00 | 0.01 | 0.00 | 91 | 1050.3 |
| 20260508225321 | 53 | 181 | 3.0 | 4.0 | 0.00 | 0.01 | 0.00 | 91 | 1050.3 |
| 20260508225310 | 53 | 181 | 2.0 | 4.0 | 0.00 | 0.01 | 0.00 | 91 | 1050.3 |
| 20260508225045 | 53 | 181 | 2.0 | 4.0 | 0.00 | 0.01 | 0.00 | 92 | 1050.3 |
| 20260508224734 | 53 | 182 | 2.0 | 4.0 | 0.00 | 0.01 | 0.00 | 91 | 1050.3 |
| 20260508224723 | 53 | 181 | 2.0 | 4.0 | 0.00 | 0.01 | 0.00 | 91 | 1050.3 |
| 20260508224624 | 53 | 182 | 2.0 | 4.0 | 0.00 | 0.01 | 0.00 | 91 | 1050.3 |
| 20260508224532 | 53 | 182 | 2.0 | 4.0 | 0.00 | 0.01 | 0.00 | 91 | 1050.3 |
| 20260508224522 | 52 | 182 | 2.0 | 4.0 | 0.00 | 0.01 | 0.00 | 91 | 1050.4 |
| 20260508224516 | 52 | 182 | 2.0 | 4.0 | 0.00 | 0.01 | 0.00 | 91 | 1050.4 |
| 20260508224457 | 52 | 181 | 2.0 | 4.0 | 0.00 | 0.01 | 0.00 | 91 | 1050.4 |
| 20260508224447 | 52 | 181 | 3.0 | 4.0 | 0.00 | 0.01 | 0.00 | 91 | 1050.4 |
| 20260508224433 | 52 | 181 | 3.0 | 4.0 | 0.00 | 0.01 | 0.00 | 91 | 1050.4 |
| 20260508223943 | 52 | 181 | 3.0 | 4.0 | 0.00 | 0.01 | 0.00 | 91 | 1050.4 |
| 20260508223653 | 52 | 181 | 3.0 | 4.0 | 0.00 | 0.01 | 0.00 | 91 | 1050.4 |
| 20260508223645 | 52 | 181 | 3.0 | 4.0 | 0.00 | 0.01 | 0.00 | 91 | 1050.4 |
| 20260508223319 | 52 | 181 | 3.0 | 4.0 | 0.00 | 0.01 | 0.00 | 91 | 1050.4 |
| 20260508223248 | 52 | 182 | 3.0 | 4.0 | 0.00 | 0.01 | 0.00 | 91 | 1050.4 |
| 20260508223237 | 52 | 181 | 3.0 | 4.0 | 0.00 | 0.01 | 0.00 | 91 | 1050.4 |
| 20260508223227 | 52 | 182 | 3.0 | 4.0 | 0.00 | 0.01 | 0.00 | 91 | 1050.4 |
| 20260508223218 | 52 | 182 | 3.0 | 4.0 | 0.00 | 0.01 | 0.00 | 91 | 1050.4 |
| 20260508223208 | 52 | 181 | 3.0 | 4.0 | 0.00 | 0.01 | 0.00 | 91 | 1050.4 |
| 20260508222719 | 52 | 181 | 3.0 | 4.0 | 0.00 | 0.01 | 0.00 | 91 | 1050.4 |
| 20260508222620 | 52 | 182 | 3.0 | 4.0 | 0.00 | 0.01 | 0.00 | 91 | 1050.4 |
| 20260508222519 | 52 | 182 | 3.0 | 4.0 | 0.00 | 0.01 | 0.00 | 91 | 1050.4 |
| 20260508222419 | 52 | 182 | 3.0 | 4.0 | 0.00 | 0.01 | 0.00 | 91 | 1050.4 |
| 20260508222319 | 52 | 182 | 3.0 | 4.0 | 0.00 | 0.01 | 0.00 | 91 | 1050.5 |
| 20260508222233 | 52 | 182 | 3.0 | 4.0 | 0.00 | 0.01 | 0.00 | 91 | 1050.4 |
| 20260508222220 | 52 | 181 | 3.0 | 4.0 | 0.00 | 0.01 | 0.00 | 91 | 1050.4 |
| 20260508222120 | 52 | 181 | 3.0 | 4.0 | 0.00 | 0.01 | 0.00 | 91 | 1050.4 |
| 20260508222023 | 52 | 181 | 3.0 | 4.0 | 0.00 | 0.01 | 0.00 | 91 | 1050.5 |
| 20260508221919 | 52 | 182 | 3.0 | 4.0 | 0.00 | 0.01 | 0.00 | 91 | 1050.5 |
| 20260508221819 | 52 | 181 | 3.0 | 4.0 | 0.00 | 0.01 | 0.00 | 91 | 1050.4 |
| 20260508221719 | 52 | 181 | 2.0 | 4.0 | 0.00 | 0.01 | 0.00 | 91 | 1050.5 |
| 20260508221620 | 52 | 181 | 2.0 | 4.0 | 0.00 | 0.01 | 0.00 | 91 | 1050.4 |
| 20260508221519 | 52 | 181 | 2.0 | 4.0 | 0.00 | 0.01 | 0.00 | 91 | 1050.5 |
| 20260508221453 | 52 | 181 | 2.0 | 4.0 | 0.00 | 0.01 | 0.00 | 91 | 1050.5 |
| 20260508221446 | 52 | 182 | 2.0 | 4.0 | 0.00 | 0.01 | 0.00 | 91 | 1050.5 |
| 20260508221425 | 52 | 181 | 2.0 | 3.0 | 0.00 | 0.01 | 0.00 | 91 | 1050.5 |
| 20260508221156 | 52 | 182 | 2.0 | 4.0 | 0.00 | 0.01 | 0.00 | 91 | 1050.5 |
| 20260508221146 | 52 | 182 | 3.0 | 4.0 | 0.00 | 0.01 | 0.00 | 91 | 1050.5 |
| 20260508221139 | 52 | 181 | 3.0 | 4.0 | 0.00 | 0.01 | 0.00 | 91 | 1050.5 |
| 20260508221127 | 52 | 181 | 3.0 | 4.0 | 0.00 | 0.01 | 0.00 | 91 | 1050.5 |
| 20260508220641 | 52 | 181 | 3.0 | 4.0 | 0.00 | 0.01 | 0.00 | 91 | 1050.5 |
| 20260508220401 | 52 | 182 | 3.0 | 4.0 | 0.00 | 0.01 | 0.00 | 91 | 1050.4 |
| 20260508220351 | 52 | 181 | 3.0 | 4.0 | 0.00 | 0.01 | 0.00 | 91 | 1050.4 |
| 20260508220344 | 52 | 182 | 3.0 | 4.0 | 0.00 | 0.01 | 0.00 | 91 | 1050.4 |
| 20260508220014 | 52 | 181 | 3.0 | 4.0 | 0.00 | 0.01 | 0.00 | 90 | 1050.4 |
| 20260508215915 | 52 | 182 | 3.0 | 4.0 | 0.00 | 0.01 | 0.01 | 90 | 1050.4 |
| 20260508215816 | 52 | 181 | 3.0 | 4.0 | 0.00 | 0.01 | 0.01 | 90 | 1050.4 |
| 20260508215734 | 52 | 181 | 3.0 | 4.0 | 0.00 | 0.01 | 0.01 | 90 | 1050.4 |
| 20260508215726 | 52 | 182 | 3.0 | 4.0 | 0.00 | 0.01 | 0.01 | 90 | 1050.4 |
| 20260508215713 | 52 | 181 | 3.0 | 4.0 | 0.00 | 0.01 | 0.01 | 90 | 1050.4 |
| 20260508215706 | 52 | 183 | 3.0 | 4.0 | 0.00 | 0.01 | 0.01 | 90 | 1050.4 |
| 20260508215658 | 52 | 181 | 3.0 | 4.0 | 0.00 | 0.01 | 0.01 | 90 | 1050.4 |
| 20260508215648 | 52 | 181 | 3.0 | 4.0 | 0.00 | 0.01 | 0.01 | 90 | 1050.3 |
| 20260508215417 | 52 | 182 | 3.0 | 4.0 | 0.00 | 0.01 | 0.01 | 90 | 1050.4 |
| 20260508215148 | 52 | 181 | 3.0 | 4.0 | 0.00 | 0.01 | 0.01 | 90 | 1050.3 |
| 20260508215141 | 52 | 181 | 3.0 | 4.0 | 0.00 | 0.01 | 0.01 | 90 | 1050.4 |
| 20260508215129 | 52 | 181 | 3.0 | 4.0 | 0.00 | 0.01 | 0.01 | 90 | 1050.4 |
| 20260508214641 | 52 | 181 | 3.0 | 4.0 | 0.00 | 0.01 | 0.01 | 90 | 1050.3 |
| 20260508214348 | 52 | 181 | 3.0 | 4.0 | 0.00 | 0.01 | 0.01 | 90 | 1050.4 |
| 20260508214337 | 52 | 182 | 3.0 | 4.0 | 0.00 | 0.01 | 0.01 | 90 | 1050.4 |
| 20260508214331 | 52 | 181 | 3.0 | 4.0 | 0.00 | 0.01 | 0.01 | 90 | 1050.4 |
| 20260508214313 | 52 | 182 | 3.0 | 4.0 | 0.00 | 0.01 | 0.01 | 90 | 1050.4 |
| 20260508214042 | 53 | 181 | 3.0 | 4.0 | 0.00 | 0.01 | 0.01 | 90 | 1050.4 |
| 20260508214036 | 53 | 182 | 2.0 | 4.0 | 0.00 | 0.01 | 0.01 | 90 | 1050.5 |
| 20260508214015 | 53 | 182 | 2.0 | 4.0 | 0.00 | 0.01 | 0.01 | 90 | 1050.4 |
| 20260508213524 | 53 | 181 | 2.0 | 4.0 | 0.00 | 0.01 | 0.01 | 90 | 1050.4 |
| 20260508213217 | 53 | 181 | 2.0 | 4.0 | 0.00 | 0.01 | 0.01 | 90 | 1050.4 |
| 20260508213203 | 53 | 182 | 2.0 | 4.0 | 0.00 | 0.01 | 0.01 | 90 | 1050.4 |
| 20260508213105 | 53 | 182 | 2.0 | 4.0 | 0.00 | 0.01 | 0.01 | 90 | 1050.4 |
| 20260508213004 | 53 | 181 | 2.0 | 4.0 | 0.00 | 0.01 | 0.01 | 90 | 1050.4 |
| 20260508212903 | 53 | 182 | 2.0 | 4.0 | 0.00 | 0.01 | 0.01 | 90 | 1050.4 |
| 20260508212803 | 53 | 182 | 2.0 | 4.0 | 0.00 | 0.01 | 0.01 | 90 | 1050.4 |
| 20260508212746 | 53 | 181 | 2.0 | 4.0 | 0.00 | 0.01 | 0.01 | 90 | 1050.4 |
| 20260508212739 | 53 | 182 | 2.0 | 4.0 | 0.00 | 0.01 | 0.01 | 90 | 1050.4 |
| 20260508212733 | 53 | 181 | 2.0 | 4.0 | 0.00 | 0.01 | 0.01 | 90 | 1050.5 |
| 20260508212719 | 53 | 182 | 2.0 | 4.0 | 0.00 | 0.01 | 0.01 | 90 | 1050.4 |
| 20260508212446 | 53 | 182 | 2.0 | 4.0 | 0.00 | 0.01 | 0.01 | 90 | 1050.4 |
| 20260508212436 | 53 | 181 | 3.0 | 4.0 | 0.00 | 0.01 | 0.01 | 89 | 1050.4 |
| 20260508212423 | 53 | 182 | 3.0 | 4.0 | 0.00 | 0.01 | 0.01 | 89 | 1050.4 |
| 20260508212157 | 53 | 182 | 3.0 | 4.0 | 0.00 | 0.01 | 0.01 | 89 | 1050.4 |
| 20260508212142 | 53 | 182 | 3.0 | 4.0 | 0.00 | 0.01 | 0.01 | 89 | 1050.4 |
| 20260508212137 | 53 | 181 | 3.0 | 4.0 | 0.00 | 0.01 | 0.01 | 89 | 1050.4 |
| 20260508211912 | 53 | 182 | 3.0 | 4.0 | 0.00 | 0.01 | 0.01 | 89 | 1050.4 |
| 20260508211903 | 53 | 182 | 3.0 | 4.0 | 0.00 | 0.01 | 0.01 | 89 | 1050.5 |
| 20260508211854 | 53 | 181 | 3.0 | 4.0 | 0.00 | 0.01 | 0.01 | 89 | 1050.4 |
| 20260508211846 | 53 | 183 | 3.0 | 4.0 | 0.00 | 0.01 | 0.01 | 89 | 1050.4 |
| 20260508211838 | 53 | 181 | 3.0 | 4.0 | 0.00 | 0.01 | 0.01 | 89 | 1050.5 |
| 20260508211828 | 53 | 181 | 3.0 | 4.0 | 0.00 | 0.01 | 0.01 | 89 | 1050.4 |
| 20260508210757 | 53 | 181 | 3.0 | 4.0 | 0.00 | 0.01 | 0.01 | 89 | 1050.4 |
| 20260508210716 | 53 | 181 | 3.0 | 4.0 | 0.00 | 0.01 | 0.01 | 89 | 1050.4 |
| 20260508210700 | 53 | 183 | 3.0 | 4.0 | 0.00 | 0.01 | 0.01 | 89 | 1050.4 |
| 20260508210558 | 53 | 182 | 3.0 | 4.0 | 0.00 | 0.01 | 0.01 | 89 | 1050.4 |
| 20260508210457 | 54 | 182 | 3.0 | 4.0 | 0.00 | 0.01 | 0.01 | 89 | 1050.4 |
| 20260508210353 | 54 | 181 | 3.0 | 4.0 | 0.00 | 0.01 | 0.01 | 89 | 1050.4 |
| 20260508210252 | 54 | 181 | 3.0 | 4.0 | 0.00 | 0.01 | 0.01 | 89 | 1050.4 |
| 20260508210214 | 54 | 181 | 3.0 | 4.0 | 0.00 | 0.01 | 0.01 | 88 | 1050.4 |
| 20260508210152 | 54 | 181 | 3.0 | 4.0 | 0.00 | 0.01 | 0.01 | 88 | 1050.4 |
| 20260508210052 | 54 | 181 | 3.0 | 4.0 | 0.00 | 0.01 | 0.01 | 89 | 1050.4 |
| 20260508205951 | 54 | 181 | 3.0 | 4.0 | 0.00 | 0.01 | 0.01 | 88 | 1050.4 |
| 20260508205938 | 54 | 181 | 3.0 | 4.0 | 0.00 | 0.01 | 0.01 | 88 | 1050.4 |
| 20260508205915 | 54 | 181 | 3.0 | 4.0 | 0.00 | 0.01 | 0.01 | 88 | 1050.4 |
| 20260508205550 | 54 | 181 | 3.0 | 4.0 | 0.00 | 0.01 | 0.01 | 88 | 1050.4 |
| 20260508205511 | 54 | 181 | 3.0 | 4.0 | 0.00 | 0.01 | 0.01 | 88 | 1050.4 |
| 20260508205505 | 54 | 181 | 2.0 | 4.0 | 0.00 | 0.01 | 0.01 | 88 | 1050.4 |
| 20260508205214 | 54 | 181 | 2.0 | 4.0 | 0.00 | 0.01 | 0.01 | 88 | 1050.4 |
| 20260508205142 | 54 | 181 | 2.0 | 4.0 | 0.00 | 0.01 | 0.01 | 88 | 1050.3 |
| 20260508205041 | 54 | 181 | 2.0 | 3.0 | 0.00 | 0.01 | 0.01 | 88 | 1050.3 |
| 20260508204942 | 54 | 181 | 2.0 | 3.0 | 0.00 | 0.01 | 0.01 | 88 | 1050.3 |
| 20260508204926 | 54 | 181 | 2.0 | 3.0 | 0.00 | 0.01 | 0.01 | 88 | 1050.3 |
| 20260508204907 | 54 | 181 | 2.0 | 3.0 | 0.00 | 0.01 | 0.01 | 88 | 1050.3 |
| 20260508204854 | 54 | 181 | 2.0 | 3.0 | 0.00 | 0.01 | 0.01 | 87 | 1050.4 |
| 20260508204629 | 54 | 181 | 2.0 | 3.0 | 0.00 | 0.01 | 0.01 | 87 | 1050.4 |
| 20260508204621 | 55 | 181 | 2.0 | 3.0 | 0.00 | 0.01 | 0.01 | 87 | 1050.4 |
| 20260508204600 | 55 | 181 | 2.0 | 3.0 | 0.00 | 0.01 | 0.01 | 87 | 1050.3 |
| 20260508204309 | 55 | 181 | 2.0 | 3.0 | 0.00 | 0.01 | 0.01 | 87 | 1050.3 |
| 20260508203710 | 55 | 181 | 2.0 | 3.0 | 0.00 | 0.01 | 0.01 | 88 | 1050.3 |
| 20260508203632 | 55 | 181 | 2.0 | 3.0 | 0.00 | 0.01 | 0.01 | 88 | 1050.3 |
| 20260508203531 | 55 | 181 | 2.0 | 3.0 | 0.00 | 0.01 | 0.01 | 88 | 1050.3 |
| 20260508203432 | 55 | 181 | 2.0 | 3.0 | 0.00 | 0.01 | 0.01 | 88 | 1050.3 |
| 20260508203331 | 55 | 181 | 2.0 | 3.0 | 0.00 | 0.01 | 0.01 | 88 | 1050.2 |
| 20260508203210 | 55 | 181 | 2.0 | 3.0 | 0.00 | 0.01 | 0.01 | 88 | 1050.2 |
| 20260508203131 | 55 | 181 | 2.0 | 3.0 | 0.00 | 0.01 | 0.01 | 88 | 1050.2 |
| 20260508203031 | 55 | 181 | 2.0 | 3.0 | 0.00 | 0.01 | 0.01 | 87 | 1050.2 |
| 20260508202929 | 55 | 181 | 2.0 | 3.0 | 0.00 | 0.01 | 0.01 | 87 | 1050.2 |
| 20260508202827 | 55 | 181 | 2.0 | 3.0 | 0.00 | 0.01 | 0.01 | 87 | 1050.2 |
| 20260508202710 | 55 | 181 | 2.0 | 3.0 | 0.00 | 0.01 | 0.01 | 87 | 1050.2 |
| 20260508202626 | 55 | 181 | 2.0 | 3.0 | 0.00 | 0.01 | 0.01 | 87 | 1050.1 |
| 20260508202524 | 55 | 181 | 2.0 | 3.0 | 0.00 | 0.01 | 0.01 | 86 | 1050.1 |
| 20260508202452 | 55 | 181 | 1.0 | 3.0 | 0.00 | 0.01 | 0.01 | 87 | 1050.2 |
| 20260508202446 | 55 | 181 | 1.0 | 3.0 | 0.00 | 0.01 | 0.01 | 86 | 1050.1 |
| 20260508202210 | 55 | 181 | 1.0 | 3.0 | 0.00 | 0.01 | 0.01 | 86 | 1050.1 |
| 20260508202121 | 55 | 181 | 1.0 | 3.0 | 0.00 | 0.01 | 0.01 | 86 | 1050.1 |
| 20260508202027 | 55 | 181 | 1.0 | 3.0 | 0.00 | 0.01 | 0.01 | 86 | 1050.2 |
| 20260508201920 | 56 | 181 | 1.0 | 3.0 | 0.00 | 0.01 | 0.01 | 86 | 1050.1 |
| 20260508201820 | 56 | 181 | 1.0 | 3.0 | 0.00 | 0.01 | 0.01 | 86 | 1050.1 |
| 20260508201712 | 56 | 181 | 1.0 | 5.0 | 0.00 | 0.01 | 0.01 | 86 | 1050.1 |
| 20260508201620 | 56 | 181 | 2.0 | 5.0 | 0.00 | 0.01 | 0.01 | 86 | 1050.1 |
| 20260508201519 | 56 | 181 | 2.0 | 5.0 | 0.00 | 0.01 | 0.01 | 86 | 1050.1 |
| 20260508201420 | 56 | 181 | 2.0 | 5.0 | 0.00 | 0.01 | 0.01 | 85 | 1050.0 |
| 20260508201319 | 56 | 181 | 2.0 | 5.0 | 0.00 | 0.01 | 0.01 | 85 | 1050.0 |
| 20260508201206 | 56 | 181 | 2.0 | 5.0 | 0.00 | 0.01 | 0.01 | 85 | 1050.0 |
| 20260508201116 | 56 | 181 | 2.0 | 5.0 | 0.00 | 0.01 | 0.01 | 85 | 1050.0 |
| 20260508201015 | 56 | 181 | 1.0 | 5.0 | 0.00 | 0.01 | 0.01 | 85 | 1050.0 |
| 20260508200915 | 56 | 181 | 1.0 | 5.0 | 0.00 | 0.01 | 0.01 | 85 | 1050.0 |
| 20260508200815 | 56 | 181 | 1.0 | 5.0 | 0.00 | 0.01 | 0.01 | 85 | 1050.0 |
| 20260508200736 | 56 | 181 | 1.0 | 4.0 | 0.00 | 0.01 | 0.01 | 84 | 1050.0 |
| 20260508200727 | 56 | 180 | 1.0 | 4.0 | 0.00 | 0.01 | 0.01 | 84 | 1050.0 |
| 20260508200714 | 56 | 181 | 1.0 | 4.0 | 0.00 | 0.01 | 0.01 | 84 | 1050.0 |
| 20260508200702 | 56 | 180 | 0.0 | 3.0 | 0.00 | 0.01 | 0.01 | 84 | 1050.0 |
| 20260508200438 | 57 | 180 | 0.0 | 3.0 | 0.00 | 0.01 | 0.01 | 84 | 1049.9 |
| 20260508200204 | 57 | 180 | 0.0 | 2.0 | 0.00 | 0.01 | 0.01 | 84 | 1049.9 |
| 20260508200117 | 57 | 180 | 0.0 | 2.0 | 0.00 | 0.01 | 0.01 | 84 | 1049.9 |
| 20260508200012 | 57 | 180 | 0.0 | 2.0 | 0.00 | 0.01 | 0.01 | 84 | 1049.9 |
| 20260508195909 | 57 | 180 | 0.0 | 2.0 | 0.00 | 0.01 | 0.01 | 84 | 1049.9 |
| 20260508195807 | 57 | 180 | 0.0 | 2.0 | 0.00 | 0.01 | 0.01 | 84 | 1049.9 |
| 20260508195704 | 57 | 180 | 0.0 | 2.0 | 0.00 | 0.01 | 0.01 | 84 | 1049.8 |
| 20260508195633 | 57 | 180 | 0.0 | 2.0 | 0.00 | 0.01 | 0.01 | 84 | 1049.8 |
| 20260508195625 | 57 | 180 | 1.0 | 2.0 | 0.00 | 0.01 | 0.01 | 83 | 1049.8 |
| 20260508195356 | 57 | 180 | 1.0 | 2.0 | 0.00 | 0.01 | 0.01 | 83 | 1049.8 |
| 20260508195335 | 57 | 180 | 1.0 | 2.0 | 0.00 | 0.01 | 0.01 | 83 | 1049.8 |
| 20260508195040 | 58 | 180 | 1.0 | 2.0 | 0.00 | 0.01 | 0.01 | 83 | 1049.8 |
| 20260508195032 | 58 | 180 | 1.0 | 2.0 | 0.00 | 0.01 | 0.01 | 83 | 1049.7 |
| 20260508194706 | 58 | 180 | 0.0 | 1.0 | 0.00 | 0.01 | 0.01 | 82 | 1049.6 |
| 20260508194604 | 58 | 180 | 0.0 | 1.0 | 0.00 | 0.01 | 0.01 | 82 | 1049.7 |
| 20260508194504 | 58 | 179 | 0.0 | 1.0 | 0.00 | 0.01 | 0.01 | 82 | 1049.6 |
| 20260508194404 | 58 | 180 | 0.0 | 1.0 | 0.00 | 0.01 | 0.01 | 82 | 1049.6 |
| 20260508194303 | 58 | 180 | 0.0 | 1.0 | 0.00 | 0.01 | 0.01 | 82 | 1049.6 |
| 20260508194211 | 58 | 180 | 0.0 | 1.0 | 0.00 | 0.01 | 0.01 | 82 | 1049.5 |
| 20260508194104 | 58 | 180 | 0.0 | 2.0 | 0.00 | 0.01 | 0.01 | 81 | 1049.6 |
| 20260508194004 | 58 | 180 | 1.0 | 2.0 | 0.00 | 0.01 | 0.01 | 81 | 1049.5 |
| 20260508193940 | 58 | 180 | 1.0 | 3.0 | 0.00 | 0.01 | 0.01 | 81 | 1049.5 |
| 20260508193932 | 59 | 180 | 1.0 | 3.0 | 0.00 | 0.01 | 0.01 | 81 | 1049.5 |
| 20260508193705 | 59 | 180 | 1.0 | 3.0 | 0.00 | 0.01 | 0.01 | 81 | 1049.6 |
| 20260508193605 | 59 | 181 | 1.0 | 3.0 | 0.00 | 0.01 | 0.01 | 80 | 1049.6 |
| 20260508193504 | 59 | 180 | 1.0 | 3.0 | 0.00 | 0.01 | 0.01 | 80 | 1049.6 |
| 20260508193404 | 59 | 180 | 1.0 | 3.0 | 0.00 | 0.01 | 0.01 | 80 | 1049.5 |
| 20260508193304 | 59 | 180 | 1.0 | 3.0 | 0.00 | 0.01 | 0.01 | 80 | 1049.5 |
| 20260508193207 | 59 | 180 | 1.0 | 3.0 | 0.00 | 0.01 | 0.01 | 80 | 1049.5 |
| 20260508193148 | 59 | 181 | 1.0 | 3.0 | 0.00 | 0.01 | 0.01 | 80 | 1049.5 |
| 20260508193139 | 60 | 180 | 1.0 | 3.0 | 0.00 | 0.01 | 0.01 | 79 | 1049.5 |
| 20260508192906 | 60 | 181 | 1.0 | 3.0 | 0.00 | 0.01 | 0.01 | 79 | 1049.4 |
| 20260508192856 | 60 | 180 | 0.0 | 3.0 | 0.00 | 0.01 | 0.01 | 78 | 1049.4 |
| 20260508192845 | 60 | 181 | 0.0 | 3.0 | 0.00 | 0.01 | 0.01 | 78 | 1049.4 |
| 20260508192835 | 60 | 180 | 0.0 | 3.0 | 0.00 | 0.01 | 0.01 | 79 | 1049.4 |
| 20260508192255 | 60 | 181 | 0.0 | 2.0 | 0.00 | 0.01 | 0.01 | 78 | 1049.4 |
| 20260508192207 | 60 | 180 | 0.0 | 2.0 | 0.00 | 0.01 | 0.01 | 78 | 1049.3 |
| 20260508192153 | 60 | 180 | 0.0 | 2.0 | 0.00 | 0.01 | 0.01 | 78 | 1049.3 |
| 20260508192052 | 60 | 180 | 1.0 | 2.0 | 0.00 | 0.01 | 0.01 | 78 | 1049.4 |
| 20260508191949 | 60 | 180 | 1.0 | 4.0 | 0.00 | 0.01 | 0.01 | 78 | 1049.4 |
| 20260508191931 | 60 | 180 | 1.0 | 4.0 | 0.00 | 0.01 | 0.01 | 77 | 1049.4 |
| 20260508191910 | 60 | 180 | 1.0 | 4.0 | 0.00 | 0.01 | 0.01 | 77 | 1049.3 |
| 20260508191548 | 60 | 180 | 1.0 | 4.0 | 0.00 | 0.01 | 0.01 | 77 | 1049.3 |
| 20260508191446 | 60 | 180 | 1.0 | 4.0 | 0.00 | 0.01 | 0.01 | 77 | 1049.3 |
| 20260508191345 | 60 | 180 | 1.0 | 4.0 | 0.00 | 0.01 | 0.01 | 77 | 1049.3 |
| 20260508191218 | 60 | 180 | 1.0 | 4.0 | 0.00 | 0.01 | 0.01 | 77 | 1049.3 |
| 20260508191147 | 60 | 180 | 1.0 | 4.0 | 0.00 | 0.01 | 0.01 | 77 | 1049.3 |
| 20260508191046 | 60 | 180 | 1.0 | 4.0 | 0.00 | 0.01 | 0.01 | 77 | 1049.3 |
| 20260508190945 | 60 | 181 | 1.0 | 2.0 | 0.00 | 0.01 | 0.01 | 77 | 1049.3 |
| 20260508190843 | 60 | 180 | 1.0 | 2.0 | 0.00 | 0.01 | 0.01 | 77 | 1049.2 |
| 20260508190749 | 61 | 181 | 1.0 | 2.0 | 0.00 | 0.01 | 0.01 | 77 | 1049.3 |
| 20260508190736 | 61 | 180 | 1.0 | 2.0 | 0.00 | 0.01 | 0.01 | 77 | 1049.3 |
| 20260508190729 | 61 | 180 | 1.0 | 2.0 | 0.00 | 0.01 | 0.01 | 77 | 1049.3 |
| 20260508190718 | 61 | 181 | 1.0 | 3.0 | 0.00 | 0.01 | 0.01 | 77 | 1049.3 |
| 20260508190446 | 61 | 180 | 1.0 | 3.0 | 0.00 | 0.01 | 0.01 | 76 | 1049.2 |
| 20260508190435 | 61 | 180 | 1.0 | 4.0 | 0.00 | 0.01 | 0.01 | 76 | 1049.1 |
| 20260508190424 | 61 | 180 | 1.0 | 4.0 | 0.00 | 0.01 | 0.01 | 76 | 1049.1 |
| 20260508190157 | 61 | 180 | 1.0 | 4.0 | 0.00 | 0.01 | 0.01 | 76 | 1049.1 |
| 20260508190150 | 61 | 180 | 1.0 | 4.0 | 0.00 | 0.01 | 0.01 | 76 | 1049.1 |
| 20260508190141 | 61 | 180 | 1.0 | 4.0 | 0.00 | 0.01 | 0.01 | 76 | 1049.1 |
| 20260508185634 | 61 | 180 | 1.0 | 4.0 | 0.00 | 0.01 | 0.01 | 75 | 1049.1 |
| 20260508185533 | 61 | 180 | 1.0 | 4.0 | 0.00 | 0.01 | 0.01 | 75 | 1049.0 |
| 20260508185433 | 61 | 180 | 1.0 | 4.0 | 0.00 | 0.01 | 0.01 | 75 | 1049.1 |
| 20260508185334 | 61 | 180 | 1.0 | 4.0 | 0.00 | 0.01 | 0.01 | 75 | 1049.0 |
| 20260508185234 | 61 | 180 | 1.0 | 5.0 | 0.00 | 0.01 | 0.01 | 75 | 1049.0 |
| 20260508185132 | 61 | 180 | 1.0 | 5.0 | 0.00 | 0.01 | 0.01 | 75 | 1049.0 |
| 20260508185109 | 61 | 180 | 1.0 | 5.0 | 0.00 | 0.01 | 0.01 | 75 | 1048.8 |
| 20260508185101 | 61 | 180 | 1.0 | 5.0 | 0.00 | 0.01 | 0.01 | 75 | 1049.0 |
| 20260508184731 | 61 | 180 | 1.0 | 5.0 | 0.00 | 0.01 | 0.01 | 75 | 1049.0 |
| 20260508184648 | 61 | 180 | 1.0 | 5.0 | 0.00 | 0.01 | 0.01 | 75 | 1049.0 |
| 20260508184631 | 61 | 180 | 2.0 | 5.0 | 0.00 | 0.01 | 0.01 | 75 | 1048.8 |
| 20260508184602 | 61 | 181 | 2.0 | 6.0 | 0.00 | 0.01 | 0.01 | 75 | 1049.0 |
| 20260508184554 | 61 | 180 | 2.0 | 6.0 | 0.00 | 0.01 | 0.01 | 75 | 1049.0 |
| 20260508184232 | 61 | 178 | 2.0 | 7.0 | 0.00 | 0.01 | 0.01 | 75 | 1049.0 |
| 20260508184150 | 61 | 178 | 2.0 | 7.0 | 0.00 | 0.01 | 0.01 | 75 | 1049.0 |
| 20260508184132 | 61 | 177 | 2.0 | 7.0 | 0.00 | 0.01 | 0.01 | 75 | 1049.0 |
| 20260508184032 | 61 | 177 | 2.0 | 7.0 | 0.00 | 0.01 | 0.01 | 75 | 1049.0 |
| 20260508183931 | 61 | 177 | 2.0 | 7.0 | 0.00 | 0.01 | 0.01 | 75 | 1049.0 |
| 20260508183831 | 61 | 177 | 3.0 | 7.0 | 0.00 | 0.01 | 0.01 | 74 | 1049.0 |
| 20260508183808 | 61 | 177 | 3.0 | 7.0 | 0.00 | 0.01 | 0.01 | 74 | 1049.1 |
| 20260508183749 | 61 | 177 | 3.0 | 7.0 | 0.00 | 0.01 | 0.01 | 74 | 1049.1 |
| 20260508183741 | 61 | 174 | 3.0 | 7.0 | 0.00 | 0.01 | 0.01 | 74 | 1049.1 |
| 20260508183732 | 61 | 172 | 3.0 | 9.0 | 0.00 | 0.01 | 0.01 | 74 | 1049.1 |
| 20260508183725 | 61 | 206 | 3.0 | 9.0 | 0.00 | 0.01 | 0.01 | 74 | 1049.0 |
| 20260508183233 | 61 | 162 | 3.0 | 9.0 | 0.00 | 0.01 | 0.01 | 74 | 1049.0 |
| 20260508183219 | 61 | 162 | 3.0 | 9.0 | 0.00 | 0.01 | 0.01 | 74 | 1049.0 |
| 20260508182948 | 61 | 162 | 3.0 | 9.0 | 0.00 | 0.01 | 0.01 | 73 | 1049.0 |
| 20260508182648 | 61 | 162 | 3.0 | 9.0 | 0.00 | 0.01 | 0.01 | 73 | 1048.8 |
| 20260508182628 | 61 | 163 | 3.0 | 9.0 | 0.00 | 0.01 | 0.01 | 73 | 1049.0 |
| 20260508182527 | 61 | 164 | 3.0 | 9.0 | 0.00 | 0.01 | 0.01 | 73 | 1048.8 |
| 20260508182427 | 61 | 162 | 3.0 | 8.0 | 0.00 | 0.01 | 0.01 | 73 | 1048.8 |
| 20260508182321 | 61 | 162 | 3.0 | 8.0 | 0.00 | 0.01 | 0.01 | 73 | 1048.8 |
| 20260508182306 | 61 | 162 | 3.0 | 8.0 | 0.00 | 0.01 | 0.01 | 73 | 1048.8 |
| 20260508182249 | 62 | 162 | 3.0 | 8.0 | 0.00 | 0.01 | 0.01 | 73 | 1048.8 |
| 20260508181921 | 62 | 162 | 3.0 | 8.0 | 0.00 | 0.01 | 0.01 | 73 | 1048.7 |
| 20260508181901 | 62 | 162 | 3.0 | 8.0 | 0.00 | 0.01 | 0.01 | 73 | 1048.7 |
| 20260508181852 | 62 | 161 | 2.0 | 8.0 | 0.00 | 0.01 | 0.01 | 73 | 1048.7 |
| 20260508181841 | 62 | 168 | 2.0 | 8.0 | 0.00 | 0.01 | 0.01 | 73 | 1048.7 |
| 20260508181519 | 62 | 152 | 2.0 | 7.0 | 0.00 | 0.01 | 0.01 | 73 | 1048.7 |
| 20260508181448 | 62 | 152 | 2.0 | 7.0 | 0.00 | 0.01 | 0.01 | 73 | 1048.6 |
| 20260508181441 | 62 | 152 | 2.0 | 7.0 | 0.00 | 0.01 | 0.01 | 73 | 1048.6 |
| 20260508181427 | 62 | 104 | 2.0 | 7.0 | 0.00 | 0.01 | 0.01 | 73 | 1048.6 |
| 20260508181416 | 62 | 104 | 2.0 | 7.0 | 0.00 | 0.01 | 0.01 | 73 | 1048.6 |
| 20260508181409 | 62 | 159 | 2.0 | 5.0 | 0.00 | 0.01 | 0.01 | 73 | 1048.6 |
| 20260508180815 | 62 | 161 | 2.0 | 6.0 | 0.00 | 0.01 | 0.01 | 73 | 1048.6 |
| 20260508180714 | 62 | 159 | 2.0 | 6.0 | 0.00 | 0.01 | 0.01 | 73 | 1048.6 |
| 20260508180647 | 62 | 158 | 2.0 | 6.0 | 0.00 | 0.01 | 0.01 | 73 | 1048.6 |
| 20260508180615 | 62 | 159 | 3.0 | 8.0 | 0.00 | 0.01 | 0.01 | 73 | 1048.5 |
| 20260508180551 | 62 | 159 | 3.0 | 8.0 | 0.00 | 0.01 | 0.01 | 73 | 1048.5 |
| 20260508180538 | 62 | 158 | 3.0 | 8.0 | 0.00 | 0.01 | 0.01 | 72 | 1048.6 |
| 20260508180257 | 62 | 158 | 3.0 | 8.0 | 0.00 | 0.01 | 0.01 | 73 | 1048.5 |
| 20260508180248 | 62 | 158 | 3.0 | 8.0 | 0.00 | 0.01 | 0.01 | 73 | 1048.5 |
| 20260508180241 | 62 | 158 | 3.0 | 8.0 | 0.00 | 0.01 | 0.01 | 73 | 1048.6 |
| 20260508175912 | 62 | 159 | 3.0 | 8.0 | 0.00 | 0.01 | 0.01 | 72 | 1048.5 |
| 20260508175811 | 62 | 159 | 3.0 | 8.0 | 0.00 | 0.01 | 0.01 | 72 | 1048.6 |
| 20260508175711 | 62 | 159 | 3.0 | 8.0 | 0.00 | 0.01 | 0.01 | 72 | 1048.6 |
| 20260508175649 | 62 | 158 | 3.0 | 8.0 | 0.00 | 0.01 | 0.01 | 72 | 1048.6 |
| 20260508175611 | 62 | 193 | 3.0 | 8.0 | 0.00 | 0.01 | 0.01 | 72 | 1048.5 |
| 20260508175511 | 62 | 193 | 3.0 | 8.0 | 0.00 | 0.01 | 0.01 | 72 | 1048.6 |
| 20260508175411 | 62 | 193 | 2.0 | 8.0 | 0.00 | 0.01 | 0.01 | 72 | 1048.6 |
| 20260508175309 | 62 | 193 | 2.0 | 8.0 | 0.00 | 0.01 | 0.01 | 72 | 1048.6 |
| 20260508175209 | 62 | 193 | 2.0 | 8.0 | 0.00 | 0.01 | 0.01 | 73 | 1048.7 |
| 20260508175153 | 62 | 146 | 2.0 | 5.0 | 0.00 | 0.01 | 0.01 | 73 | 1048.7 |
| 20260508175142 | 62 | 189 | 2.0 | 7.0 | 0.00 | 0.01 | 0.01 | 73 | 1048.6 |
| 20260508175133 | 62 | 189 | 2.0 | 7.0 | 0.00 | 0.01 | 0.01 | 73 | 1048.6 |
| 20260508174805 | 62 | 189 | 2.0 | 7.0 | 0.00 | 0.01 | 0.01 | 73 | 1048.7 |
| 20260508174704 | 62 | 191 | 2.0 | 7.0 | 0.00 | 0.01 | 0.01 | 73 | 1048.7 |
| 20260508174648 | 62 | 191 | 2.0 | 7.0 | 0.00 | 0.01 | 0.01 | 73 | 1048.7 |
| 20260508174603 | 62 | 191 | 2.0 | 7.0 | 0.00 | 0.01 | 0.01 | 73 | 1048.7 |
| 20260508174504 | 63 | 191 | 2.0 | 7.0 | 0.00 | 0.01 | 0.01 | 73 | 1048.7 |
| 20260508174433 | 63 | 191 | 2.0 | 7.0 | 0.00 | 0.01 | 0.01 | 73 | 1048.7 |
| 20260508174427 | 63 | 192 | 2.0 | 7.0 | 0.00 | 0.01 | 0.01 | 73 | 1048.7 |
| 20260508174141 | 63 | 172 | 2.0 | 7.0 | 0.00 | 0.01 | 0.01 | 73 | 1048.7 |
| 20260508174103 | 63 | 135 | 2.0 | 8.0 | 0.00 | 0.01 | 0.01 | 73 | 1048.7 |
| 20260508174003 | 63 | 278 | 3.0 | 8.0 | 0.00 | 0.01 | 0.01 | 73 | 1048.6 |
| 20260508173919 | 63 | 282 | 3.0 | 10.0 | 0.00 | 0.01 | 0.01 | 73 | 1048.6 |
| 20260508173911 | 63 | 282 | 3.0 | 10.0 | 0.00 | 0.01 | 0.01 | 73 | 1048.6 |
| 20260508173854 | 63 | 282 | 3.0 | 10.0 | 0.00 | 0.01 | 0.01 | 73 | 1048.6 |
| 20260508173835 | 63 | 282 | 3.0 | 10.0 | 0.00 | 0.01 | 0.01 | 73 | 1048.5 |
| 20260508173604 | 63 | 225 | 3.0 | 10.0 | 0.00 | 0.01 | 0.01 | 73 | 1048.5 |
| 20260508173556 | 63 | 225 | 3.0 | 10.0 | 0.00 | 0.01 | 0.01 | 73 | 1048.5 |
| 20260508173543 | 63 | 225 | 3.0 | 10.0 | 0.00 | 0.01 | 0.01 | 73 | 1048.5 |
| 20260508173053 | 63 | 215 | 3.0 | 10.0 | 0.00 | 0.01 | 0.01 | 73 | 1048.6 |
| 20260508173046 | 63 | 167 | 3.0 | 10.0 | 0.00 | 0.01 | 0.01 | 73 | 1048.6 |
| 20260508173037 | 63 | 201 | 3.0 | 10.0 | 0.00 | 0.01 | 0.01 | 73 | 1048.6 |
| 20260508173028 | 63 | 201 | 3.0 | 10.0 | 0.00 | 0.01 | 0.01 | 74 | 1048.6 |
| 20260508173017 | 63 | 214 | 3.0 | 10.0 | 0.00 | 0.01 | 0.01 | 74 | 1048.6 |
| 20260508172526 | 63 | 219 | 3.0 | 8.0 | 0.00 | 0.01 | 0.01 | 74 | 1048.6 |
| 20260508172203 | 63 | 219 | 3.0 | 8.0 | 0.00 | 0.01 | 0.01 | 73 | 1048.6 |
| 20260508172139 | 63 | 220 | 3.0 | 8.0 | 0.00 | 0.01 | 0.01 | 74 | 1048.6 |
| 20260508172103 | 63 | 214 | 3.0 | 8.0 | 0.00 | 0.01 | 0.01 | 74 | 1048.6 |
| 20260508172003 | 63 | 213 | 4.0 | 9.0 | 0.00 | 0.01 | 0.01 | 74 | 1048.5 |
| 20260508171903 | 63 | 213 | 4.0 | 10.0 | 0.00 | 0.01 | 0.01 | 74 | 1048.5 |
| 20260508171847 | 63 | 213 | 4.0 | 10.0 | 0.00 | 0.01 | 0.01 | 74 | 1048.5 |
| 20260508171839 | 63 | 212 | 4.0 | 10.0 | 0.00 | 0.01 | 0.01 | 74 | 1048.5 |
| 20260508171829 | 63 | 220 | 4.0 | 10.0 | 0.00 | 0.01 | 0.01 | 74 | 1048.5 |
| 20260508171504 | 63 | 221 | 4.0 | 10.0 | 0.00 | 0.01 | 0.01 | 73 | 1048.5 |
| 20260508171406 | 63 | 222 | 5.0 | 10.0 | 0.00 | 0.01 | 0.01 | 73 | 1048.5 |
| 20260508171305 | 63 | 154 | 5.0 | 10.0 | 0.00 | 0.01 | 0.01 | 73 | 1048.4 |
| 20260508171203 | 63 | 154 | 5.0 | 10.0 | 0.00 | 0.01 | 0.01 | 73 | 1048.4 |
| 20260508171139 | 63 | 154 | 5.0 | 10.0 | 0.00 | 0.01 | 0.01 | 73 | 1048.4 |
| 20260508171104 | 63 | 149 | 5.0 | 10.0 | 0.00 | 0.01 | 0.01 | 73 | 1048.4 |
| 20260508171003 | 63 | 198 | 5.0 | 10.0 | 0.00 | 0.01 | 0.01 | 73 | 1048.4 |
| 20260508170936 | 63 | 200 | 4.0 | 10.0 | 0.00 | 0.01 | 0.01 | 73 | 1048.5 |
| 20260508170927 | 63 | 196 | 4.0 | 10.0 | 0.00 | 0.01 | 0.01 | 73 | 1048.5 |
| 20260508170915 | 63 | 195 | 4.0 | 10.0 | 0.00 | 0.01 | 0.01 | 73 | 1048.5 |
| 20260508170636 | 64 | 194 | 4.0 | 10.0 | 0.00 | 0.01 | 0.01 | 73 | 1048.5 |
| 20260508170627 | 64 | 204 | 4.0 | 10.0 | 0.00 | 0.01 | 0.01 | 73 | 1048.4 |
| 20260508170303 | 64 | 231 | 4.0 | 10.0 | 0.00 | 0.01 | 0.01 | 73 | 1048.4 |
| 20260508170203 | 64 | 218 | 4.0 | 10.0 | 0.00 | 0.01 | 0.01 | 73 | 1048.5 |
| 20260508170142 | 64 | 226 | 4.0 | 10.0 | 0.00 | 0.01 | 0.01 | 73 | 1048.5 |
| 20260508170003 | 64 | 214 | 4.0 | 10.0 | 0.00 | 0.01 | 0.01 | 72 | 1048.5 |
| 20260508165903 | 64 | 214 | 4.0 | 10.0 | 0.00 | 0.01 | 0.01 | 72 | 1048.5 |
| 20260508165804 | 64 | 215 | 4.0 | 10.0 | 0.00 | 0.01 | 0.01 | 72 | 1048.5 |
| 20260508165741 | 64 | 214 | 4.0 | 10.0 | 0.00 | 0.01 | 0.01 | 72 | 1048.4 |
| 20260508165725 | 64 | 214 | 4.0 | 10.0 | 0.00 | 0.01 | 0.01 | 72 | 1048.5 |
| 20260508165406 | 64 | 215 | 4.0 | 10.0 | 0.00 | 0.01 | 0.01 | 71 | 1048.5 |
| 20260508165306 | 64 | 239 | 3.0 | 9.0 | 0.00 | 0.01 | 0.01 | 71 | 1048.5 |
| 20260508165204 | 64 | 244 | 3.0 | 9.0 | 0.00 | 0.01 | 0.01 | 71 | 1048.5 |
| 20260508165140 | 64 | 184 | 3.0 | 9.0 | 0.00 | 0.01 | 0.01 | 71 | 1048.4 |
| 20260508165103 | 64 | 182 | 3.0 | 9.0 | 0.00 | 0.01 | 0.01 | 70 | 1048.4 |
| 20260508165005 | 64 | 179 | 3.0 | 9.0 | 0.00 | 0.01 | 0.01 | 70 | 1048.4 |
| 20260508164903 | 64 | 178 | 3.0 | 9.0 | 0.00 | 0.01 | 0.01 | 70 | 1048.4 |
| 20260508164803 | 64 | 183 | 3.0 | 6.0 | 0.00 | 0.01 | 0.01 | 70 | 1048.4 |
| 20260508164703 | 64 | 184 | 3.0 | 6.0 | 0.00 | 0.01 | 0.01 | 70 | 1048.4 |
| 20260508164640 | 64 | 183 | 3.0 | 6.0 | 0.00 | 0.01 | 0.01 | 69 | 1048.4 |
| 20260508164603 | 64 | 181 | 3.0 | 9.0 | 0.00 | 0.01 | 0.01 | 70 | 1048.4 |
| 20260508164503 | 64 | 228 | 3.0 | 9.0 | 0.00 | 0.01 | 0.01 | 70 | 1048.3 |
| 20260508164404 | 64 | 236 | 2.0 | 9.0 | 0.00 | 0.01 | 0.01 | 70 | 1048.3 |
| 20260508164303 | 64 | 208 | 3.0 | 9.0 | 0.00 | 0.01 | 0.01 | 70 | 1048.3 |
| 20260508164240 | 64 | 208 | 3.0 | 9.0 | 0.00 | 0.01 | 0.01 | 70 | 1048.3 |
| 20260508164229 | 64 | 208 | 3.0 | 9.0 | 0.00 | 0.01 | 0.01 | 70 | 1048.3 |
| 20260508164222 | 64 | 208 | 3.0 | 9.0 | 0.00 | 0.01 | 0.01 | 70 | 1048.3 |
| 20260508163902 | 64 | 120 | 3.0 | 9.0 | 0.00 | 0.01 | 0.01 | 69 | 1048.3 |
| 20260508163801 | 64 | 120 | 3.0 | 9.0 | 0.00 | 0.01 | 0.01 | 70 | 1048.3 |
| 20260508163708 | 64 | 120 | 4.0 | 9.0 | 0.00 | 0.01 | 0.01 | 71 | 1048.3 |
| 20260508163656 | 64 | 117 | 4.0 | 9.0 | 0.00 | 0.01 | 0.01 | 71 | 1048.3 |
| 20260508163649 | 64 | 192 | 4.0 | 9.0 | 0.00 | 0.01 | 0.01 | 71 | 1048.3 |
| 20260508163640 | 64 | 193 | 4.0 | 9.0 | 0.00 | 0.01 | 0.01 | 71 | 1048.3 |
| 20260508163342 | 64 | 194 | 4.0 | 9.0 | 0.00 | 0.01 | 0.01 | 72 | 1048.3 |
| 20260508163334 | 64 | 206 | 4.0 | 8.0 | 0.00 | 0.01 | 0.01 | 72 | 1048.2 |
| 20260508163325 | 64 | 204 | 3.0 | 8.0 | 0.00 | 0.01 | 0.01 | 72 | 1048.2 |
| 20260508163001 | 64 | 173 | 3.0 | 7.0 | 0.00 | 0.01 | 0.01 | 72 | 1048.2 |
| 20260508162901 | 64 | 174 | 4.0 | 8.0 | 0.00 | 0.01 | 0.01 | 72 | 1048.2 |
| 20260508162801 | 64 | 172 | 4.0 | 11.0 | 0.00 | 0.01 | 0.01 | 72 | 1048.2 |
| 20260508162706 | 64 | 172 | 4.0 | 11.0 | 0.00 | 0.01 | 0.01 | 72 | 1048.2 |
| 20260508162657 | 64 | 172 | 4.0 | 11.0 | 0.00 | 0.01 | 0.01 | 72 | 1048.1 |
| 20260508162646 | 64 | 170 | 4.0 | 11.0 | 0.00 | 0.01 | 0.01 | 73 | 1048.1 |
| 20260508162634 | 64 | 179 | 4.0 | 11.0 | 0.00 | 0.01 | 0.01 | 73 | 1048.2 |
| 20260508162628 | 64 | 179 | 4.0 | 11.0 | 0.00 | 0.01 | 0.01 | 73 | 1048.2 |
| 20260508162620 | 64 | 216 | 4.0 | 11.0 | 0.00 | 0.01 | 0.01 | 73 | 1048.2 |